WA4BPS Weather Reports


time (UTC)temp
C
wind
direction
speed
KPH
gust
KPH
rain 1hr
cm
rain 24hr
cm
rain mn
cm
humidity
%
barometer
mb
20260904143204 27 243 3.2 9.7 0.00 0.00 0.00 71 1014.8
20260904143041 27 241 1.6 11.3 0.00 0.00 0.00 71 1014.8
20260904142938 27 243 0.0 11.3 0.00 0.00 0.00 70 1014.8
20260904142837 27 243 0.0 11.3 0.00 0.00 0.00 70 1014.8
20260904142735 27 243 0.0 11.3 0.00 0.00 0.00 71 1014.9
20260904142638 27 241 1.6 11.3 0.00 0.00 0.00 71 1014.9
20260904142536 27 241 4.8 11.3 0.00 0.00 0.00 71 1014.9
20260904142435 27 241 6.4 11.3 0.00 0.00 0.00 72 1014.9
20260904142353 27 241 8.0 11.3 0.00 0.00 0.00 72 1014.9
20260904142231 27 241 6.4 11.3 0.00 0.00 0.00 72 1014.9
20260904142128 27 239 6.4 11.3 0.00 0.00 0.00 72 1014.9
20260904142050 27 246 4.8 8.0 0.00 0.00 0.00 72 1014.9
20260904141932 27 247 1.6 9.7 0.00 0.00 0.00 72 1014.9
20260904141831 26 246 3.2 9.7 0.00 0.00 0.00 72 1014.9
20260904141741 26 247 3.2 9.7 0.00 0.00 0.00 72 1014.9
20260904141649 26 243 0.0 9.7 0.00 0.00 0.00 72 1014.9
20260904141548 26 246 1.6 9.7 0.00 0.00 0.00 72 1014.9
20260904141505 26 246 1.6 9.7 0.00 0.00 0.00 72 1014.9
20260904141404 26 247 3.2 9.7 0.00 0.00 0.00 72 1014.9
20260904141242 26 246 1.6 9.7 0.00 0.00 0.00 72 1014.7
20260904141123 26 246 6.4 9.7 0.00 0.00 0.00 72 1014.7
20260904141025 26 247 1.6 8.0 0.00 0.00 0.00 71 1014.7
20260904140925 26 248 4.8 8.0 0.00 0.00 0.00 71 1014.7
20260904140843 26 246 4.8 8.0 0.00 0.00 0.00 71 1014.7
20260904140742 26 247 3.2 8.0 0.00 0.00 0.00 71 1014.7
20260904140640 26 244 3.2 8.0 0.00 0.00 0.00 71 1014.7
20260904140557 26 247 3.2 8.0 0.00 0.00 0.00 71 1014.7
20260904140435 26 247 3.2 8.0 0.00 0.00 0.00 71 1014.7
20260904140357 26 247 3.2 8.0 0.00 0.00 0.00 71 1014.7
20260904140255 26 243 1.6 8.0 0.00 0.00 0.00 71 1014.7
20260904140226 26 243 3.2 9.7 0.00 0.00 0.00 71 1014.7
20260904140040 26 247 6.4 9.7 0.00 0.00 0.00 71 1014.7
20260904135959 26 244 4.8 9.7 0.00 0.00 0.00 71 1014.7
20260904135838 26 243 4.8 9.7 0.00 0.00 0.00 71 1014.7
20260904135735 26 241 4.8 9.7 0.00 0.00 0.00 71 1014.8
20260904135634 26 240 3.2 9.7 0.00 0.00 0.00 72 1014.8
20260904135531 26 239 1.6 9.7 0.00 0.00 0.00 72 1014.8
20260904135434 26 237 3.2 11.3 0.00 0.00 0.00 72 1014.8
20260904135355 26 237 6.4 11.3 0.00 0.00 0.00 72 1014.8
20260904135232 26 241 4.8 11.3 0.00 0.00 0.00 72 1014.8
20260904135130 26 239 3.2 11.3 0.00 0.00 0.00 72 1014.8
20260904135029 26 236 3.2 11.3 0.00 0.00 0.00 72 1014.8
20260904134928 26 239 4.8 11.3 0.00 0.00 0.00 72 1014.8
20260904134828 26 239 3.2 11.3 0.00 0.00 0.00 73 1014.8
20260904134731 26 239 3.2 11.3 0.00 0.00 0.00 73 1014.8
20260904134701 26 239 6.4 11.3 0.00 0.00 0.00 73 1014.8
20260904134539 26 233 6.4 11.3 0.00 0.00 0.00 73 1014.8
20260904134441 26 236 4.8 9.7 0.00 0.00 0.00 73 1014.8
20260904134338 26 229 3.2 9.7 0.00 0.00 0.00 75 1014.8
20260904134237 26 229 6.4 11.3 0.00 0.00 0.00 75 1014.8
20260904134135 26 227 4.8 11.3 0.00 0.00 0.00 75 1014.8
20260904134033 26 230 4.8 11.3 0.00 0.00 0.00 76 1014.8
20260904133956 26 223 6.4 11.3 0.00 0.00 0.00 76 1014.8
20260904133833 26 230 3.2 11.3 0.00 0.00 0.00 76 1014.8
20260904133733 26 229 4.8 11.3 0.00 0.00 0.00 76 1014.8
20260904133631 26 230 6.4 11.3 0.00 0.00 0.00 76 1014.8
20260904133530 26 229 8.0 14.5 0.00 0.00 0.00 76 1014.8
20260904133427 26 224 9.7 14.5 0.00 0.00 0.00 76 1014.8
20260904133325 26 216 8.0 14.5 0.00 0.00 0.00 76 1014.8
20260904133225 26 198 1.6 14.5 0.00 0.00 0.00 77 1014.8
20260904133159 26 198 3.2 14.5 0.00 0.00 0.00 77 1014.8
20260904133035 26 199 4.8 14.5 0.00 0.00 0.00 77 1014.8
20260904132933 26 198 3.2 14.5 0.00 0.00 0.00 77 1014.8
20260904132851 26 206 4.8 14.5 0.00 0.00 0.00 77 1014.8
20260904132729 26 203 9.7 14.5 0.00 0.00 0.00 77 1014.8
20260904132627 26 213 6.4 12.9 0.00 0.00 0.00 77 1014.8
20260904132525 26 212 8.0 12.9 0.00 0.00 0.00 77 1014.8
20260904132428 26 219 8.0 12.9 0.00 0.00 0.00 77 1014.8
20260904132327 26 193 3.2 4.8 0.00 0.00 0.00 77 1014.8
20260904132247 26 195 1.6 4.8 0.00 0.00 0.00 77 1014.8
20260904132144 26 191 1.6 6.4 0.00 0.00 0.00 77 1014.8
20260904132042 26 191 1.6 6.4 0.00 0.00 0.00 77 1014.8
20260904131942 26 189 1.6 6.4 0.00 0.00 0.00 77 1014.8
20260904131841 26 191 3.2 6.4 0.00 0.00 0.00 77 1014.8
20260904131724 26 188 1.6 8.0 0.00 0.00 0.00 77 1014.8
20260904131654 26 188 3.2 8.0 0.00 0.00 0.00 77 1014.8
20260904131531 26 186 1.6 8.0 0.00 0.00 0.00 77 1014.8
20260904131430 26 186 1.6 8.0 0.00 0.00 0.00 77 1014.8
20260904131329 25 184 3.2 8.0 0.00 0.00 0.00 77 1014.8
20260904131248 25 185 3.2 8.0 0.00 0.00 0.00 77 1014.6
20260904131124 25 176 1.6 8.0 0.00 0.00 0.00 77 1014.6
20260904131043 25 179 3.2 8.0 0.00 0.00 0.00 77 1014.6
20260904130926 25 176 4.8 8.0 0.00 0.00 0.00 77 1014.6
20260904130844 25 175 1.6 8.0 0.00 0.00 0.00 77 1014.6
20260904130742 25 167 0.0 8.0 0.00 0.00 0.00 77 1014.6
20260904130641 25 167 3.2 8.0 0.00 0.00 0.00 77 1014.6
20260904130541 25 167 1.6 8.0 0.00 0.00 0.00 77 1014.6
20260904130459 25 165 3.2 8.0 0.00 0.00 0.00 77 1014.6
20260904130336 25 161 3.2 8.0 0.00 0.00 0.00 78 1014.6
20260904130235 25 158 3.2 8.0 0.00 0.00 0.00 78 1014.6
20260904130209 25 158 3.2 8.0 0.00 0.00 0.00 78 1014.6
20260904130025 25 157 1.6 8.0 0.00 0.00 0.00 78 1014.6
20260904125924 25 154 4.8 8.0 0.00 0.00 0.00 78 1014.6
20260904125843 25 154 4.8 8.0 0.00 0.00 0.00 78 1014.6
20260904125742 25 155 3.2 8.0 0.00 0.00 0.00 78 1014.5
20260904125641 25 155 4.8 8.0 0.00 0.00 0.00 78 1014.5
20260904125539 25 157 4.8 8.0 0.00 0.00 0.00 78 1014.5
20260904125442 25 158 4.8 8.0 0.00 0.00 0.00 78 1014.5
20260904125341 25 158 3.2 8.0 0.00 0.00 0.00 78 1014.5
20260904125240 25 157 4.8 9.7 0.00 0.00 0.00 78 1014.5
20260904125140 25 162 4.8 9.7 0.00 0.00 0.00 78 1014.5
20260904125038 25 164 1.6 11.3 0.00 0.00 0.00 78 1014.5
20260904124937 25 161 3.2 11.3 0.00 0.00 0.00 77 1014.5
20260904124836 25 193 3.2 11.3 0.00 0.00 0.00 77 1014.5
20260904124739 25 193 3.2 11.3 0.00 0.00 0.00 77 1014.5
20260904124708 25 196 3.2 11.3 0.00 0.00 0.00 77 1014.5
20260904124526 25 200 1.6 11.3 0.00 0.00 0.00 77 1014.5
20260904124443 25 200 4.8 11.3 0.00 0.00 0.00 77 1014.5
20260904124403 25 200 4.8 11.3 0.00 0.00 0.00 77 1014.5
20260904124240 25 196 4.8 11.3 0.00 0.00 0.00 77 1014.5
20260904124139 25 195 3.2 8.0 0.00 0.00 0.00 77 1014.5
20260904124037 25 193 1.6 8.0 0.00 0.00 0.00 77 1014.5
20260904123939 25 195 1.6 9.7 0.00 0.00 0.00 77 1014.5
20260904123839 25 193 1.6 9.7 0.00 0.00 0.00 77 1014.5
20260904123737 25 193 1.6 9.7 0.00 0.00 0.00 77 1014.5
20260904123636 25 193 3.2 9.7 0.00 0.00 0.00 77 1014.5
20260904123533 25 192 1.6 9.7 0.00 0.00 0.00 77 1014.5
20260904123431 25 193 1.6 9.7 0.00 0.00 0.00 77 1014.5
20260904123331 25 193 1.6 9.7 0.00 0.00 0.00 77 1014.5
20260904123255 25 192 4.8 9.7 0.00 0.00 0.00 77 1014.5
20260904123205 25 193 4.8 9.7 0.00 0.00 0.00 77 1014.5
20260904123041 25 192 1.6 9.7 0.00 0.00 0.00 77 1014.5
20260904122940 25 192 3.2 9.7 0.00 0.00 0.00 77 1014.5
20260904122838 25 188 3.2 9.7 0.00 0.00 0.00 77 1014.5
20260904122737 25 182 4.8 9.7 0.00 0.00 0.00 77 1014.3
20260904122636 25 182 4.8 9.7 0.00 0.00 0.00 77 1014.3
20260904122538 25 179 4.8 9.7 0.00 0.00 0.00 77 1014.3
20260904122436 25 174 3.2 9.7 0.00 0.00 0.00 77 1014.3
20260904122335 25 165 1.6 9.7 0.00 0.00 0.00 77 1014.3
20260904122234 25 164 1.6 9.7 0.00 0.00 0.00 77 1014.3
20260904122151 25 164 1.6 9.7 0.00 0.00 0.00 77 1014.3
20260904122030 25 162 1.6 11.3 0.00 0.00 0.00 77 1014.3
20260904121928 25 158 3.2 11.3 0.00 0.00 0.00 77 1014.3
20260904121830 25 157 4.8 11.3 0.00 0.00 0.00 77 1014.3
20260904121748 25 151 8.0 11.3 0.00 0.00 0.00 77 1014.3
20260904121717 25 151 6.4 11.3 0.00 0.00 0.00 77 1014.3
20260904121537 25 155 4.8 11.3 0.00 0.00 0.00 77 1014.3
20260904121436 25 157 4.8 11.3 0.00 0.00 0.00 77 1014.3
20260904121338 25 154 6.4 11.3 0.00 0.00 0.00 77 1014.3
20260904121236 25 158 8.0 11.3 0.00 0.00 0.00 77 1014.1
20260904121134 25 151 6.4 11.3 0.00 0.00 0.00 77 1014.1
20260904121037 25 145 6.4 11.3 0.00 0.00 0.00 77 1014.1
20260904120935 25 145 8.0 11.3 0.00 0.00 0.00 76 1014.1
20260904120853 25 148 4.8 11.3 0.00 0.00 0.00 77 1014.1
20260904120730 25 141 4.8 11.3 0.00 0.00 0.00 76 1014.1
20260904120649 25 144 6.4 11.3 0.00 0.00 0.00 76 1014.1
20260904120529 25 131 9.7 11.3 0.00 0.00 0.00 76 1014.1
20260904120430 25 155 6.4 11.3 0.00 0.00 0.00 76 1014.1
20260904120333 25 154 6.4 11.3 0.00 0.00 0.00 76 1014.1
20260904120231 25 147 4.8 11.3 0.00 0.00 0.00 76 1014.1
20260904120203 25 154 4.8 11.3 0.00 0.00 0.00 76 1014.1
20260904120040 25 151 6.4 11.3 0.00 0.00 0.00 76 1014.1
20260904115938 25 144 6.4 11.3 0.00 0.00 0.00 76 1014.1
20260904115837 25 161 4.8 11.3 0.00 0.00 0.00 76 1014.1
20260904115735 25 138 6.4 11.3 0.00 0.00 0.00 76 1014.0
20260904115634 25 161 4.8 9.7 0.00 0.00 0.00 76 1014.0
20260904115537 25 168 6.4 11.3 0.00 0.00 0.00 76 1014.0
20260904115435 25 151 6.4 11.3 0.00 0.00 0.00 76 1014.0
20260904115333 25 148 6.4 11.3 0.00 0.00 0.00 76 1014.0
20260904115232 25 150 8.0 11.3 0.00 0.00 0.00 76 1014.0
20260904115151 25 148 6.4 11.3 0.00 0.00 0.00 76 1014.0
20260904115030 25 147 3.2 11.3 0.00 0.00 0.00 76 1014.0
20260904114928 25 141 8.0 12.9 0.00 0.00 0.00 76 1014.0
20260904114831 25 145 3.2 12.9 0.00 0.00 0.00 76 1014.0
20260904114759 25 140 9.7 12.9 0.00 0.00 0.00 76 1014.0
20260904114647 25 143 9.7 12.9 0.00 0.00 0.00 76 1014.0
20260904114524 25 147 6.4 12.9 0.00 0.00 0.00 76 1014.0
20260904114443 25 144 4.8 12.9 0.00 0.00 0.00 76 1014.0
20260904114401 25 137 8.0 12.9 0.00 0.00 0.00 76 1014.0
20260904114238 25 147 8.0 12.9 0.00 0.00 0.00 75 1013.9
20260904114135 25 148 8.0 12.9 0.00 0.00 0.00 75 1013.9
20260904114033 25 150 6.4 12.9 0.00 0.00 0.00 75 1013.9
20260904113934 25 148 4.8 11.3 0.00 0.00 0.00 75 1013.9
20260904113833 25 147 9.7 11.3 0.00 0.00 0.00 75 1013.9
20260904113733 25 148 8.0 11.3 0.00 0.00 0.00 75 1013.9
20260904113652 25 154 8.0 11.3 0.00 0.00 0.00 75 1013.9
20260904113550 25 147 8.0 11.3 0.00 0.00 0.00 75 1013.9
20260904113427 25 154 8.0 12.9 0.00 0.00 0.00 75 1013.9
20260904113325 25 157 8.0 12.9 0.00 0.00 0.00 75 1013.9
20260904113226 25 152 8.0 12.9 0.00 0.00 0.00 75 1013.9
20260904113157 25 152 4.8 12.9 0.00 0.00 0.00 75 1013.9
20260904113035 25 147 3.2 12.9 0.00 0.00 0.00 75 1013.9
20260904112952 25 148 6.4 12.9 0.00 0.00 0.00 75 1013.9
20260904112830 25 151 6.4 12.9 0.00 0.00 0.00 75 1013.9
20260904112729 25 151 9.7 12.9 0.00 0.00 0.00 75 1013.9
20260904112647 25 141 9.7 12.9 0.00 0.00 0.00 75 1013.9
20260904112544 25 143 9.7 12.9 0.00 0.00 0.00 75 1013.9
20260904112424 25 147 8.0 12.9 0.00 0.00 0.00 75 1013.9
20260904112342 25 152 9.7 12.9 0.00 0.00 0.00 75 1013.9
20260904112241 25 141 11.3 12.9 0.00 0.00 0.00 75 1013.9
20260904112140 25 143 9.7 12.9 0.00 0.00 0.00 75 1013.9
20260904112037 25 131 8.0 12.9 0.00 0.00 0.00 75 1013.9
20260904111958 25 141 6.4 12.9 0.00 0.00 0.00 75 1013.9
20260904111835 25 140 6.4 12.9 0.00 0.00 0.00 75 1013.9
20260904111744 25 136 8.0 12.9 0.00 0.00 0.00 75 1013.9
20260904111656 25 145 8.0 12.9 0.00 0.00 0.00 75 1013.9
20260904111534 25 145 6.4 12.9 0.00 0.00 0.00 75 1013.9
20260904111432 25 154 8.0 11.3 0.00 0.00 0.00 75 1013.9
20260904111332 25 145 8.0 11.3 0.00 0.00 0.00 75 1013.9
20260904111231 25 145 6.4 11.3 0.00 0.00 0.00 75 1013.5
20260904111131 25 148 6.4 11.3 0.00 0.00 0.00 75 1013.5
20260904111030 25 143 6.4 11.3 0.00 0.00 0.00 75 1013.5
20260904110933 25 137 8.0 11.3 0.00 0.00 0.00 75 1013.5
20260904110831 25 136 8.0 11.3 0.00 0.00 0.00 75 1013.5
20260904110729 25 136 4.8 11.3 0.00 0.00 0.00 75 1013.5
20260904110648 25 134 9.7 11.3 0.00 0.00 0.00 75 1013.5
20260904110526 25 127 8.0 11.3 0.00 0.00 0.00 75 1013.5
20260904110428 25 137 6.4 11.3 0.00 0.00 0.00 75 1013.5
20260904110348 25 136 8.0 11.3 0.00 0.00 0.00 75 1013.5
20260904110307 25 138 8.0 11.3 0.00 0.00 0.00 75 1013.5
20260904110222 25 141 8.0 11.3 0.00 0.00 0.00 75 1013.5
20260904110057 25 137 9.7 11.3 0.00 0.00 0.00 75 1013.5
20260904105934 25 138 4.8 11.3 0.00 0.00 0.00 75 1013.5
20260904105834 25 138 6.4 11.3 0.00 0.00 0.00 75 1013.5
20260904105732 25 137 9.7 11.3 0.00 0.00 0.00 75 1013.4
20260904105631 25 124 8.0 11.3 0.00 0.00 0.00 75 1013.4
20260904105531 25 145 9.7 11.3 0.00 0.00 0.00 75 1013.4
20260904105449 25 148 9.7 11.3 0.00 0.00 0.00 75 1013.4
20260904105330 25 136 8.0 11.3 0.00 0.00 0.00 75 1013.4
20260904105230 25 137 6.4 11.3 0.00 0.00 0.00 75 1013.4
20260904105128 25 151 4.8 11.3 0.00 0.00 0.00 75 1013.4
20260904105046 25 140 8.0 11.3 0.00 0.00 0.00 75 1013.4
20260904104923 25 140 6.4 11.3 0.00 0.00 0.00 75 1013.4
20260904104825 25 134 8.0 11.3 0.00 0.00 0.00 75 1013.4
20260904104743 25 140 8.0 11.3 0.00 0.00 0.00 75 1013.4
20260904104713 25 143 8.0 11.3 0.00 0.00 0.00 75 1013.4
20260904104555 25 145 8.0 11.3 0.00 0.00 0.00 75 1013.4
20260904104433 25 144 6.4 11.3 0.00 0.00 0.00 75 1013.4
20260904104331 25 144 8.0 11.3 0.00 0.00 0.00 75 1013.4
20260904104229 25 144 6.4 11.3 0.00 0.00 0.00 75 1013.2
20260904104148 25 140 6.4 11.3 0.00 0.00 0.00 75 1013.2
20260904104025 25 140 6.4 11.3 0.00 0.00 0.00 75 1013.2
20260904103943 25 141 9.7 11.3 0.00 0.00 0.00 75 1013.2
20260904103901 25 148 9.7 11.3 0.00 0.00 0.00 75 1013.2
20260904103743 25 145 6.4 11.3 0.00 0.00 0.00 75 1013.2
20260904103641 25 145 6.4 11.3 0.00 0.00 0.00 75 1013.2
20260904103539 25 145 3.2 11.3 0.00 0.00 0.00 75 1013.2
20260904103436 25 126 6.4 11.3 0.00 0.00 0.00 74 1013.2
20260904103354 25 141 9.7 11.3 0.00 0.00 0.00 74 1013.2
20260904103243 25 138 4.8 11.3 0.00 0.00 0.00 74 1013.2
20260904103153 25 140 8.0 11.3 0.00 0.00 0.00 74 1013.2
20260904103029 25 144 6.4 11.3 0.00 0.00 0.00 74 1013.2
20260904102931 25 145 8.0 11.3 0.00 0.00 0.00 74 1013.2
20260904102829 25 143 8.0 11.3 0.00 0.00 0.00 74 1013.2
20260904102728 25 138 6.4 11.3 0.00 0.00 0.00 74 1013.2
20260904102646 25 145 6.4 11.3 0.00 0.00 0.00 74 1013.2
20260904102605 25 143 8.0 11.3 0.00 0.00 0.00 74 1013.2
20260904102442 25 147 9.7 11.3 0.00 0.00 0.00 74 1013.2
20260904102340 25 143 6.4 11.3 0.00 0.00 0.00 74 1013.2
20260904102242 25 133 6.4 11.3 0.00 0.00 0.00 74 1013.2
20260904102141 25 140 4.8 11.3 0.00 0.00 0.00 74 1013.2
20260904102040 25 148 8.0 11.3 0.00 0.00 0.00 74 1013.2
20260904101939 25 140 8.0 11.3 0.00 0.00 0.00 74 1013.2
20260904101836 25 145 8.0 11.3 0.00 0.00 0.00 74 1013.2
20260904101736 25 147 8.0 11.3 0.00 0.00 0.00 74 1013.2
20260904101706 25 143 6.4 11.3 0.00 0.00 0.00 74 1013.2
20260904101603 25 127 3.2 12.9 0.00 0.00 0.00 74 1013.2
20260904101424 25 126 6.4 12.9 0.00 0.00 0.00 74 1013.2
20260904101342 25 144 6.4 12.9 0.00 0.00 0.00 74 1013.2
20260904101242 25 145 8.0 12.9 0.00 0.00 0.00 73 1013.0
20260904101141 25 144 9.7 12.9 0.00 0.00 0.00 73 1013.0
20260904101040 25 141 8.0 12.9 0.00 0.00 0.00 73 1013.0
20260904100938 25 143 8.0 12.9 0.00 0.00 0.00 73 1013.0
20260904100836 25 150 6.4 12.9 0.00 0.00 0.00 73 1013.0
20260904100738 25 144 8.0 12.9 0.00 0.00 0.00 73 1013.0
20260904100637 25 145 6.4 12.9 0.00 0.00 0.00 73 1013.0
20260904100535 25 147 6.4 12.9 0.00 0.00 0.00 73 1013.0
20260904100433 25 151 8.0 12.9 0.00 0.00 0.00 73 1013.0
20260904100332 25 145 8.0 12.9 0.00 0.00 0.00 73 1013.0
20260904100242 25 147 8.0 12.9 0.00 0.00 0.00 73 1013.0
20260904100153 25 152 8.0 12.9 0.00 0.00 0.00 73 1013.0
20260904100035 25 151 6.4 12.9 0.00 0.00 0.00 73 1013.0
20260904095932 25 144 8.0 12.9 0.00 0.00 0.00 73 1013.0
20260904095851 25 150 9.7 12.9 0.00 0.00 0.00 73 1013.0
20260904095728 25 147 6.4 11.3 0.00 0.00 0.00 73 1012.9
20260904095646 25 150 6.4 11.3 0.00 0.00 0.00 73 1012.9
20260904095543 25 154 8.0 11.3 0.00 0.00 0.00 74 1012.9
20260904095441 25 145 6.4 11.3 0.00 0.00 0.00 73 1012.9
20260904095400 25 148 6.4 11.3 0.00 0.00 0.00 73 1012.9
20260904095238 25 138 9.7 11.3 0.00 0.00 0.00 73 1012.9
20260904095139 25 151 9.7 11.3 0.00 0.00 0.00 73 1012.9
20260904095038 25 140 8.0 11.3 0.00 0.00 0.00 73 1012.9
20260904094937 25 147 6.4 11.3 0.00 0.00 0.00 73 1012.9
20260904094855 25 143 6.4 11.3 0.00 0.00 0.00 73 1012.9
20260904094733 25 136 6.4 12.9 0.00 0.00 0.00 73 1012.9
20260904094702 25 144 6.4 12.9 0.00 0.00 0.00 73 1012.9
20260904094539 25 147 8.0 12.9 0.00 0.00 0.00 74 1012.9
20260904094441 25 160 8.0 12.9 0.00 0.00 0.00 74 1012.9
20260904094400 25 150 8.0 12.9 0.00 0.00 0.00 74 1012.9
20260904094257 25 138 8.0 12.9 0.00 0.00 0.00 74 1012.9
20260904094135 25 136 6.4 12.9 0.00 0.00 0.00 74 1012.9
20260904094033 25 151 4.8 12.9 0.00 0.00 0.00 74 1012.9
20260904093931 25 144 9.7 12.9 0.00 0.00 0.00 74 1012.9
20260904093829 25 144 9.7 12.9 0.00 0.00 0.00 74 1012.9
20260904093728 25 137 8.0 12.9 0.00 0.00 0.00 74 1012.9
20260904093648 25 133 8.0 12.9 0.00 0.00 0.00 74 1012.9
20260904093530 25 143 6.4 12.9 0.00 0.00 0.00 74 1012.9
20260904093429 25 144 8.0 12.9 0.00 0.00 0.00 74 1012.9
20260904093327 25 144 9.7 12.9 0.00 0.00 0.00 74 1012.9
20260904093237 25 140 9.7 11.3 0.00 0.00 0.00 74 1012.9
20260904093146 25 143 6.4 11.3 0.00 0.00 0.00 74 1012.9
20260904093043 25 144 6.4 11.3 0.00 0.00 0.00 74 1012.9
20260904092942 25 145 9.7 11.3 0.00 0.00 0.00 74 1012.9
20260904092846 25 144 4.8 11.3 0.00 0.00 0.00 74 1012.9
20260904092742 25 151 6.4 11.3 0.00 0.00 0.00 74 1013.8
20260904092641 25 144 9.7 11.3 0.00 0.00 0.00 74 1013.8
20260904092539 25 138 9.7 11.3 0.00 0.00 0.00 74 1013.8
20260904092458 25 140 8.0 11.3 0.00 0.00 0.00 73 1013.8
20260904092336 25 141 6.4 12.9 0.00 0.00 0.00 73 1013.8
20260904092234 25 145 6.4 14.5 0.00 0.00 0.00 73 1013.8
20260904092133 25 136 8.0 14.5 0.00 0.00 0.00 74 1013.8
20260904092035 25 107 9.7 14.5 0.00 0.00 0.00 74 1013.8
20260904091954 25 136 9.7 14.5 0.00 0.00 0.00 74 1013.8
20260904091832 25 144 9.7 14.5 0.00 0.00 0.00 74 1013.8
20260904091730 25 131 8.0 14.5 0.00 0.00 0.00 74 1013.8
20260904091659 25 140 6.4 14.5 0.00 0.00 0.00 73 1013.8
20260904091537 26 123 9.7 14.5 0.00 0.00 0.00 74 1013.8
20260904091456 26 143 9.7 16.1 0.00 0.00 0.00 73 1013.8
20260904091336 26 145 8.0 16.1 0.00 0.00 0.00 73 1013.8
20260904091259 26 128 9.7 16.1 0.00 0.00 0.00 74 1013.6
20260904091136 26 138 8.0 16.1 0.00 0.00 0.00 74 1013.6
20260904091036 26 143 6.4 16.1 0.00 0.00 0.00 74 1013.6
20260904090932 26 133 6.4 16.1 0.00 0.00 0.00 73 1013.6
20260904090832 26 144 9.7 16.1 0.00 0.00 0.00 73 1013.6
20260904090731 26 137 11.3 16.1 0.00 0.00 0.00 73 1013.6
20260904090630 26 144 9.7 16.1 0.00 0.00 0.00 73 1013.6
20260904090532 26 127 9.7 16.1 0.00 0.00 0.00 73 1013.6
20260904090430 26 133 9.7 16.1 0.00 0.00 0.00 73 1013.6
20260904090329 26 144 9.7 16.1 0.00 0.00 0.00 73 1013.6
20260904090246 26 141 11.3 16.1 0.00 0.00 0.00 73 1013.6
20260904090156 26 134 11.3 16.1 0.00 0.00 0.00 73 1013.6
20260904090032 26 143 11.3 12.9 0.00 0.00 0.00 73 1013.6
20260904085930 26 138 6.4 12.9 0.00 0.00 0.00 73 1013.6
20260904085834 26 143 9.7 12.9 0.00 0.00 0.00 73 1013.6
20260904085733 26 171 6.4 12.9 0.00 0.00 0.00 73 1013.7
20260904085631 26 136 8.0 12.9 0.00 0.00 0.00 73 1013.7
20260904085530 26 126 9.7 12.9 0.00 0.00 0.00 73 1013.7
20260904085427 26 143 6.4 12.9 0.00 0.00 0.00 73 1013.7
20260904085324 26 136 9.7 12.9 0.00 0.00 0.00 73 1013.7
20260904085243 26 143 9.7 12.9 0.00 0.00 0.00 73 1013.7
20260904085125 26 144 6.4 12.9 0.00 0.00 0.00 73 1013.7
20260904085043 26 148 8.0 12.9 0.00 0.00 0.00 73 1013.7
20260904084941 26 148 11.3 12.9 0.00 0.00 0.00 73 1013.7
20260904084840 26 138 8.0 12.9 0.00 0.00 0.00 73 1013.7
20260904084738 26 137 9.7 12.9 0.00 0.00 0.00 73 1013.7
20260904084645 26 138 8.0 12.9 0.00 0.00 0.00 73 1013.7
20260904084541 26 138 8.0 12.9 0.00 0.00 0.00 73 1013.7
20260904084440 26 155 4.8 12.9 0.00 0.00 0.00 73 1013.7
20260904084400 25 152 8.0 12.9 0.00 0.00 0.00 72 1013.7
20260904084221 25 150 8.0 12.9 0.00 0.00 0.00 73 1013.7
20260904084144 26 151 8.0 12.9 0.00 0.00 0.00 73 1013.7
20260904084102 25 148 8.0 12.9 0.00 0.00 0.00 73 1013.7
20260904083940 25 147 9.7 12.9 0.00 0.00 0.00 73 1013.7
20260904083859 25 143 8.0 12.9 0.00 0.00 0.00 73 1013.7
20260904083737 25 147 9.7 12.9 0.00 0.00 0.00 73 1013.7
20260904083635 25 148 6.4 11.3 0.00 0.00 0.00 73 1013.7
20260904083554 25 152 8.0 11.3 0.00 0.00 0.00 73 1013.7
20260904083436 26 147 9.7 11.3 0.00 0.00 0.00 73 1013.7
20260904083336 26 145 9.7 11.3 0.00 0.00 0.00 73 1013.7
20260904083207 26 145 8.0 11.3 0.00 0.00 0.00 73 1013.7
20260904083103 26 144 8.0 11.3 0.00 0.00 0.00 74 1013.7
20260904082941 26 147 9.7 11.3 0.00 0.00 0.00 74 1013.7
20260904082839 26 141 9.7 11.3 0.00 0.00 0.00 74 1013.7
20260904082737 26 148 8.0 11.3 0.00 0.00 0.00 74 1013.6
20260904082639 26 148 8.0 11.3 0.00 0.00 0.00 73 1013.6
20260904082539 26 143 8.0 11.3 0.00 0.00 0.00 74 1013.6
20260904082437 26 148 9.7 11.3 0.00 0.00 0.00 73 1013.6
20260904082336 26 150 6.4 12.9 0.00 0.00 0.00 73 1013.6
20260904082234 26 144 8.0 12.9 0.00 0.00 0.00 73 1013.6
20260904082134 26 145 8.0 12.9 0.00 0.00 0.00 73 1013.6
20260904082033 26 148 8.0 12.9 0.00 0.00 0.00 74 1013.6
20260904081956 26 134 8.0 12.9 0.00 0.00 0.00 73 1013.6
20260904081833 26 133 6.4 12.9 0.00 0.00 0.00 73 1013.6
20260904081743 26 144 6.4 12.9 0.00 0.00 0.00 73 1013.6
20260904081652 26 140 8.0 12.9 0.00 0.00 0.00 73 1013.6
20260904081529 26 143 9.7 12.9 0.00 0.00 0.00 73 1013.6
20260904081449 26 138 9.7 11.3 0.00 0.00 0.00 73 1013.6
20260904081327 26 136 8.0 11.3 0.00 0.00 0.00 73 1013.6
20260904081225 26 137 8.0 11.3 0.00 0.00 0.00 74 1013.5
20260904081125 26 141 8.0 11.3 0.00 0.00 0.00 74 1013.5
20260904081023 26 136 8.0 11.3 0.00 0.00 0.00 74 1013.5
20260904080942 26 134 8.0 11.3 0.00 0.00 0.00 74 1013.5
20260904080842 26 136 8.0 11.3 0.00 0.00 0.00 73 1013.5
20260904080740 26 134 8.0 11.3 0.00 0.00 0.00 73 1013.5
20260904080639 26 133 8.0 11.3 0.00 0.00 0.00 73 1013.5
20260904080558 26 133 8.0 11.3 0.00 0.00 0.00 73 1013.5
20260904080455 26 136 6.4 9.7 0.00 0.00 0.00 73 1013.5
20260904080336 26 137 6.4 9.7 0.00 0.00 0.00 73 1013.5
20260904080255 26 134 8.0 9.7 0.00 0.00 0.00 72 1013.5
20260904080226 26 136 6.4 11.3 0.00 0.00 0.00 72 1013.5
20260904080041 26 138 6.4 11.3 0.00 0.00 0.00 73 1013.5
20260904075939 26 138 4.8 11.3 0.00 0.00 0.00 73 1013.5
20260904075859 26 140 4.8 11.3 0.00 0.00 0.00 72 1013.5
20260904075738 26 140 6.4 11.3 0.00 0.00 0.00 72 1013.5
20260904075636 26 131 8.0 11.3 0.00 0.00 0.00 72 1013.5
20260904075539 26 141 6.4 11.3 0.00 0.00 0.00 72 1013.5
20260904075437 26 136 6.4 11.3 0.00 0.00 0.00 72 1013.5
20260904075355 26 133 8.0 11.3 0.00 0.00 0.00 72 1013.5
20260904075233 26 134 8.0 11.3 0.00 0.00 0.00 72 1013.5
20260904075132 26 137 6.4 11.3 0.00 0.00 0.00 72 1013.5
20260904075030 26 134 8.0 11.3 0.00 0.00 0.00 72 1013.5
20260904074948 26 131 8.0 11.3 0.00 0.00 0.00 72 1013.5
20260904074845 26 131 8.0 11.3 0.00 0.00 0.00 72 1013.5
20260904074728 26 126 8.0 11.3 0.00 0.00 0.00 72 1013.5
20260904074656 26 124 8.0 11.3 0.00 0.00 0.00 72 1013.5
20260904074534 26 128 8.0 11.3 0.00 0.00 0.00 72 1013.5
20260904074433 26 127 9.7 11.3 0.00 0.00 0.00 73 1013.5
20260904074331 26 128 9.7 11.3 0.00 0.00 0.00 73 1013.5
20260904074229 26 127 9.7 11.3 0.00 0.00 0.00 73 1013.6
20260904074128 26 128 9.7 11.3 0.00 0.00 0.00 73 1013.6
20260904074027 26 130 8.0 11.3 0.00 0.00 0.00 73 1013.6
20260904073949 26 128 8.0 11.3 0.00 0.00 0.00 73 1013.6
20260904073827 26 134 8.0 11.3 0.00 0.00 0.00 73 1013.6
20260904073725 26 137 9.7 11.3 0.00 0.00 0.00 73 1013.6
20260904073643 26 134 8.0 11.3 0.00 0.00 0.00 73 1013.6
20260904073541 26 128 8.0 11.3 0.00 0.00 0.00 73 1013.6
20260904073440 26 134 9.7 11.3 0.00 0.00 0.00 73 1013.6
20260904073336 26 124 8.0 11.3 0.00 0.00 0.00 73 1013.6
20260904073254 26 134 9.7 11.3 0.00 0.00 0.00 73 1013.6
20260904073224 26 138 8.0 11.3 0.00 0.00 0.00 73 1013.6
20260904073104 26 133 6.4 11.3 0.00 0.00 0.00 73 1013.6
20260904072921 26 136 6.4 11.3 0.00 0.00 0.00 73 1013.6
20260904072843 26 133 6.4 11.3 0.00 0.00 0.00 73 1013.6
20260904072741 26 131 9.7 11.3 0.00 0.00 0.00 73 1013.6
20260904072700 26 134 8.0 11.3 0.00 0.00 0.00 73 1013.6
20260904072538 26 133 8.0 11.3 0.00 0.00 0.00 73 1013.6
20260904072436 26 131 8.0 11.3 0.00 0.00 0.00 73 1013.6
20260904072339 26 131 6.4 11.3 0.00 0.00 0.00 73 1013.6
20260904072237 26 130 6.4 11.3 0.00 0.00 0.00 73 1013.6
20260904072155 26 136 8.0 12.9 0.00 0.00 0.00 73 1013.6
20260904072032 26 140 6.4 12.9 0.00 0.00 0.00 74 1013.6
20260904071930 26 138 8.0 12.9 0.00 0.00 0.00 73 1013.6
20260904071829 26 140 8.0 12.9 0.00 0.00 0.00 73 1013.6
20260904071727 26 133 6.4 12.9 0.00 0.00 0.00 73 1013.6
20260904071656 26 130 8.0 12.9 0.00 0.00 0.00 73 1013.6
20260904071538 26 140 9.7 12.9 0.00 0.00 0.00 73 1013.6
20260904071437 26 134 9.7 12.9 0.00 0.00 0.00 73 1013.6
20260904071335 26 128 9.7 12.9 0.00 0.00 0.00 73 1013.6
20260904071233 26 124 9.7 11.3 0.00 0.00 0.00 73 1013.7
20260904071152 26 127 9.7 11.3 0.00 0.00 0.00 73 1013.7
20260904071033 26 133 8.0 11.3 0.00 0.00 0.00 72 1013.7
20260904070933 26 128 8.0 11.3 0.00 0.00 0.00 72 1013.7
20260904070835 26 119 9.7 11.3 0.00 0.00 0.00 72 1013.7
20260904070734 26 124 8.0 11.3 0.00 0.00 0.00 72 1013.7
20260904070633 26 133 8.0 11.3 0.00 0.00 0.00 72 1013.7
20260904070533 26 133 9.7 11.3 0.00 0.00 0.00 72 1013.7
20260904070433 26 120 8.0 11.3 0.00 0.00 0.00 72 1013.7
20260904070352 26 128 9.7 11.3 0.00 0.00 0.00 72 1013.7
20260904070230 26 126 9.7 11.3 0.00 0.00 0.00 72 1013.7
20260904070201 26 124 8.0 11.3 0.00 0.00 0.00 71 1013.7
20260904070042 26 127 9.7 11.3 0.00 0.00 0.00 72 1013.7
20260904065939 26 126 9.7 9.7 0.00 0.00 0.00 71 1013.7
20260904065838 26 127 8.0 9.7 0.00 0.00 0.00 71 1013.7
20260904065737 26 126 8.0 11.3 0.00 0.00 0.00 71 1013.7
20260904065656 26 126 8.0 11.3 0.00 0.00 0.00 71 1013.7
20260904065533 26 128 6.4 11.3 0.00 0.00 0.00 71 1013.7
20260904065431 26 124 8.0 11.3 0.00 0.00 0.00 71 1013.7
20260904065333 26 124 8.0 11.3 0.00 0.00 0.00 71 1013.7
20260904065232 26 120 8.0 11.3 0.00 0.00 0.00 71 1013.7
20260904065130 26 121 6.4 11.3 0.00 0.00 0.00 71 1013.7
20260904065028 26 119 8.0 11.3 0.00 0.00 0.00 71 1013.7
20260904064950 26 116 9.7 11.3 0.00 0.00 0.00 71 1013.7
20260904064849 26 117 9.7 11.3 0.00 0.00 0.00 71 1013.7
20260904064727 26 116 8.0 11.3 0.00 0.00 0.00 70 1013.7
20260904064655 26 119 9.7 11.3 0.00 0.00 0.00 71 1013.7
20260904064535 26 113 9.7 11.3 0.00 0.00 0.00 70 1013.7
20260904064453 26 121 6.4 9.7 0.00 0.00 0.00 70 1013.7
20260904064331 26 126 6.4 9.7 0.00 0.00 0.00 70 1013.7
20260904064228 26 121 4.8 9.7 0.00 0.00 0.00 70 1013.7
20260904064147 26 120 4.8 9.7 0.00 0.00 0.00 69 1013.7
20260904064043 26 119 6.4 9.7 0.00 0.00 0.00 69 1013.7
20260904063942 26 117 4.8 9.7 0.00 0.00 0.00 68 1013.7
20260904063840 26 119 6.4 9.7 0.00 0.00 0.00 68 1013.7
20260904063724 26 119 6.4 9.7 0.00 0.00 0.00 68 1013.7
20260904063642 26 119 4.8 9.7 0.00 0.00 0.00 68 1013.7
20260904063540 26 116 4.8 9.7 0.00 0.00 0.00 68 1013.7
20260904063439 26 119 6.4 9.7 0.00 0.00 0.00 67 1013.7
20260904063358 26 119 8.0 9.7 0.00 0.00 0.00 67 1013.7
20260904063316 26 117 8.0 9.7 0.00 0.00 0.00 67 1013.7
20260904063205 26 116 6.4 9.7 0.00 0.00 0.00 67 1013.7
20260904063101 26 114 6.4 9.7 0.00 0.00 0.00 67 1013.7
20260904062938 26 117 6.4 9.7 0.00 0.00 0.00 67 1013.7
20260904062858 26 117 6.4 9.7 0.00 0.00 0.00 67 1013.7
20260904062739 26 117 8.0 9.7 0.00 0.00 0.00 67 1013.9
20260904062638 26 119 8.0 9.7 0.00 0.00 0.00 68 1013.9
20260904062557 26 120 8.0 9.7 0.00 0.00 0.00 68 1013.9
20260904062434 26 113 6.4 9.7 0.00 0.00 0.00 67 1013.9
20260904062333 26 112 8.0 9.7 0.00 0.00 0.00 68 1013.9
20260904062235 26 110 6.4 9.7 0.00 0.00 0.00 68 1013.9
20260904062133 26 110 6.4 9.7 0.00 0.00 0.00 68 1013.9
20260904062036 26 107 6.4 9.7 0.00 0.00 0.00 68 1013.9
20260904061934 26 106 4.8 9.7 0.00 0.00 0.00 68 1013.9
20260904061833 26 107 8.0 9.7 0.00 0.00 0.00 68 1013.9
20260904061752 26 106 4.8 9.7 0.00 0.00 0.00 68 1013.9
20260904061700 26 104 4.8 9.7 0.00 0.00 0.00 68 1013.9
20260904061538 26 102 4.8 9.7 0.00 0.00 0.00 67 1013.9
20260904061439 26 102 4.8 9.7 0.00 0.00 0.00 67 1013.9
20260904061342 27 100 4.8 9.7 0.00 0.00 0.00 66 1013.9
20260904061242 27 102 6.4 9.7 0.00 0.00 0.00 66 1014.0
20260904061140 27 100 6.4 9.7 0.00 0.00 0.00 66 1014.0
20260904061038 27 100 8.0 9.7 0.00 0.00 0.00 66 1014.0
20260904060957 27 99 4.8 8.0 0.00 0.00 0.00 65 1014.0
20260904060834 27 97 4.8 8.0 0.00 0.00 0.00 65 1014.0
20260904060733 27 97 4.8 8.0 0.00 0.00 0.00 65 1014.0
20260904060636 27 95 4.8 8.0 0.00 0.00 0.00 65 1014.0
20260904060533 27 99 4.8 8.0 0.00 0.00 0.00 65 1014.0
20260904060451 27 97 6.4 8.0 0.00 0.00 0.00 65 1014.0
20260904060330 27 97 6.4 8.0 0.00 0.00 0.00 65 1014.0
20260904060239 27 97 4.8 8.0 0.00 0.00 0.00 65 1014.0
20260904060149 27 97 4.8 8.0 0.00 0.00 0.00 65 1014.0
20260904060024 27 97 4.8 8.0 0.00 0.00 0.00 65 1014.0
20260904055922 27 97 4.8 8.0 0.00 0.00 0.00 65 1014.0
20260904055828 27 96 4.8 8.0 0.00 0.00 0.00 65 1014.0
20260904055746 27 96 6.4 8.0 0.00 0.00 0.00 65 1014.2
20260904055643 27 97 4.8 8.0 0.00 0.00 0.00 65 1014.2
20260904055541 27 96 4.8 8.0 0.00 0.00 0.00 65 1014.2
20260904055500 27 97 4.8 8.0 0.00 0.00 0.00 65 1014.2
20260904055338 27 96 4.8 8.0 0.00 0.00 0.00 65 1014.2
20260904055238 27 95 4.8 8.0 0.00 0.00 0.00 65 1014.2
20260904055137 26 96 4.8 8.0 0.00 0.00 0.00 65 1014.2
20260904055039 26 97 4.8 8.0 0.00 0.00 0.00 65 1014.2
20260904054958 26 95 4.8 8.0 0.00 0.00 0.00 65 1014.2
20260904054835 26 97 6.4 8.0 0.00 0.00 0.00 65 1014.2
20260904054743 26 97 4.8 8.0 0.00 0.00 0.00 65 1014.2
20260904054652 26 97 4.8 8.0 0.00 0.00 0.00 65 1014.2
20260904054529 26 97 6.4 8.0 0.00 0.00 0.00 65 1014.2
20260904054427 26 97 6.4 8.0 0.00 0.00 0.00 65 1014.2
20260904054345 26 96 4.8 8.0 0.00 0.00 0.00 65 1014.2
20260904054228 26 95 4.8 8.0 0.00 0.00 0.00 65 1014.2
20260904054127 26 97 6.4 8.0 0.00 0.00 0.00 65 1014.2
20260904054025 26 97 6.4 8.0 0.00 0.00 0.00 65 1014.2
20260904053943 26 96 6.4 8.0 0.00 0.00 0.00 65 1014.2
20260904053902 26 96 4.8 8.0 0.00 0.00 0.00 65 1014.2
20260904053738 26 97 4.8 8.0 0.00 0.00 0.00 65 1014.2
20260904053636 26 96 4.8 8.0 0.00 0.00 0.00 65 1014.2
20260904053537 26 96 4.8 8.0 0.00 0.00 0.00 65 1014.2
20260904053440 26 95 6.4 9.7 0.00 0.00 0.00 65 1014.2
20260904053359 26 96 6.4 9.7 0.00 0.00 0.00 65 1014.2
20260904053237 26 96 6.4 9.7 0.00 0.00 0.00 65 1014.2
20260904053207 26 96 6.4 9.7 0.00 0.00 0.00 66 1014.2
20260904053042 26 96 6.4 9.7 0.00 0.00 0.00 66 1014.2
20260904052940 26 96 6.4 9.7 0.00 0.00 0.00 66 1014.2
20260904052839 26 97 6.4 9.7 0.00 0.00 0.00 67 1014.2
20260904052738 26 96 6.4 9.7 0.00 0.00 0.00 67 1014.3
20260904052642 26 96 6.4 9.7 0.00 0.00 0.00 67 1014.3
20260904052540 26 93 6.4 9.7 0.00 0.00 0.00 67 1014.3
20260904052438 26 95 8.0 9.7 0.00 0.00 0.00 67 1014.3
20260904052334 26 95 8.0 9.7 0.00 0.00 0.00 66 1014.3
20260904052254 26 92 6.4 9.7 0.00 0.00 0.00 67 1014.3
20260904052131 26 93 6.4 9.7 0.00 0.00 0.00 67 1014.3
20260904052030 26 93 6.4 9.7 0.00 0.00 0.00 67 1014.3
20260904051949 26 93 4.8 9.7 0.00 0.00 0.00 67 1014.3
20260904051830 26 93 4.8 9.7 0.00 0.00 0.00 68 1014.3
20260904051730 26 93 6.4 9.7 0.00 0.00 0.00 68 1014.3
20260904051700 26 95 8.0 9.7 0.00 0.00 0.00 68 1014.3
20260904051537 26 95 8.0 9.7 0.00 0.00 0.00 68 1014.3
20260904051434 26 93 6.4 8.0 0.00 0.00 0.00 67 1014.3
20260904051333 26 92 6.4 8.0 0.00 0.00 0.00 66 1014.3
20260904051231 26 93 6.4 8.0 0.00 0.00 0.00 66 1014.3
20260904051133 26 92 8.0 9.7 0.00 0.00 0.00 66 1014.3
20260904051032 26 95 6.4 9.7 0.00 0.00 0.00 66 1014.3
20260904050931 26 95 6.4 9.7 0.00 0.00 0.00 66 1014.3
20260904050829 26 92 4.8 9.7 0.00 0.00 0.00 66 1014.3
20260904050727 26 93 4.8 9.7 0.00 0.00 0.00 66 1014.3
20260904050625 26 93 8.0 9.7 0.00 0.00 0.00 67 1014.3
20260904050528 26 92 6.4 9.7 0.00 0.00 0.00 67 1014.3
20260904050426 26 92 4.8 9.7 0.00 0.00 0.00 68 1014.3
20260904050328 26 95 6.4 9.7 0.00 0.00 0.00 68 1014.3
20260904050247 26 93 8.0 9.7 0.00 0.00 0.00 68 1014.3
20260904050156 26 93 8.0 9.7 0.00 0.00 0.00 68 1014.3
20260904050053 26 92 8.0 9.7 0.00 0.00 0.00 68 1014.3
20260904045932 26 93 6.4 9.7 0.00 0.00 0.00 68 1014.3
20260904045830 26 92 4.8 9.7 0.00 0.00 0.00 68 1014.3
20260904045730 26 90 6.4 9.7 0.00 0.00 0.00 68 1014.3
20260904045631 26 90 6.4 9.7 0.00 0.00 0.00 68 1014.3
20260904045530 26 90 6.4 9.7 0.00 0.00 0.00 68 1014.3
20260904045430 26 92 8.0 9.7 0.00 0.00 0.00 68 1014.3
20260904045327 26 92 8.0 9.7 0.00 0.00 0.00 68 1014.3
20260904045225 26 92 8.0 9.7 0.00 0.00 0.00 68 1014.3
20260904045143 26 90 6.4 9.7 0.00 0.00 0.00 68 1014.3
20260904045026 26 92 8.0 9.7 0.00 0.00 0.00 68 1014.3
20260904044945 26 93 8.0 9.7 0.00 0.00 0.00 68 1014.3
20260904044903 26 92 6.4 9.7 0.00 0.00 0.00 68 1014.3
20260904044741 26 93 6.4 9.7 0.00 0.00 0.00 68 1014.3
20260904044711 26 92 8.0 9.7 0.00 0.00 0.00 68 1014.3
20260904044527 26 90 6.4 9.7 0.00 0.00 0.00 68 1014.3
20260904044425 26 93 8.0 9.7 0.00 0.00 0.00 68 1014.3
20260904044342 26 93 8.0 9.7 0.00 0.00 0.00 68 1014.3
20260904044301 26 89 8.0 9.7 0.00 0.00 0.00 68 1014.2
20260904044124 26 93 8.0 9.7 0.00 0.00 0.00 68 1014.2
20260904044043 26 93 8.0 9.7 0.00 0.00 0.00 68 1014.2
20260904043940 26 89 8.0 9.7 0.00 0.00 0.00 69 1014.2
20260904043840 26 92 8.0 9.7 0.00 0.00 0.00 69 1014.2
20260904043739 26 92 8.0 9.7 0.00 0.00 0.00 70 1014.2
20260904043638 26 93 8.0 9.7 0.00 0.00 0.00 70 1014.2
20260904043536 26 93 6.4 9.7 0.00 0.00 0.00 70 1014.2
20260904043441 26 90 8.0 9.7 0.00 0.00 0.00 71 1014.2
20260904043359 26 90 8.0 9.7 0.00 0.00 0.00 71 1014.2
20260904043256 27 90 8.0 9.7 0.00 0.00 0.00 71 1014.2
20260904043205 27 92 8.0 9.7 0.00 0.00 0.00 71 1014.2
20260904043041 27 90 8.0 9.7 0.00 0.00 0.00 71 1014.2
20260904042940 27 92 8.0 8.0 0.00 0.00 0.00 70 1014.2
20260904042838 27 92 6.4 8.0 0.00 0.00 0.00 70 1014.2
20260904042738 27 92 6.4 8.0 0.00 0.00 0.00 70 1014.2
20260904042700 27 90 4.8 8.0 0.00 0.00 0.00 70 1014.2
20260904042539 27 90 4.8 9.7 0.00 0.00 0.00 69 1014.2
20260904042437 27 90 6.4 9.7 0.00 0.00 0.00 69 1014.2
20260904042356 27 90 4.8 9.7 0.00 0.00 0.00 69 1014.2
20260904042234 27 90 3.2 9.7 0.00 0.00 0.00 69 1014.2
20260904042152 27 92 4.8 9.7 0.00 0.00 0.00 68 1014.2
20260904042049 27 88 6.4 9.7 0.00 0.00 0.00 68 1014.2
20260904041926 27 90 6.4 9.7 0.00 0.00 0.00 68 1014.2
20260904041828 27 88 6.4 9.7 0.00 0.00 0.00 68 1014.2
20260904041728 27 89 6.4 9.7 0.00 0.00 0.00 68 1014.2
20260904041701 27 89 6.4 9.7 0.00 0.00 0.00 69 1014.2
20260904041540 27 89 4.8 9.7 0.00 0.00 0.00 69 1014.2
20260904041457 27 90 6.4 9.7 0.00 0.00 0.00 69 1014.2
20260904041334 27 89 6.4 9.7 0.00 0.00 0.00 68 1014.2
20260904041233 27 88 4.8 9.7 0.00 0.00 0.00 67 1014.5
20260904041152 27 90 4.8 9.7 0.00 0.00 0.00 67 1014.5
20260904041033 27 85 4.8 9.7 0.00 0.00 0.00 67 1014.5
20260904040931 27 88 6.4 9.7 0.00 0.00 0.00 69 1014.5
20260904040830 27 89 6.4 9.7 0.00 0.00 0.00 70 1014.5
20260904040729 27 89 6.4 9.7 0.00 0.00 0.00 69 1014.5
20260904040627 27 89 6.4 9.7 0.00 0.00 0.00 68 1014.5
20260904040525 27 89 4.8 9.7 0.00 0.00 0.00 68 1014.5
20260904040424 27 89 6.4 9.7 0.00 0.00 0.00 68 1014.5
20260904040326 27 88 4.8 9.7 0.00 0.00 0.00 67 1014.5
20260904040146 27 85 6.4 9.7 0.00 0.00 0.00 67 1014.5
20260904040043 27 88 6.4 9.7 0.00 0.00 0.00 67 1014.5
20260904035941 27 88 4.8 9.7 0.00 0.00 0.00 68 1014.5
20260904035859 27 88 6.4 9.7 0.00 0.00 0.00 68 1014.5
20260904035736 27 88 8.0 9.7 0.00 0.00 0.00 68 1014.7
20260904035635 27 86 8.0 9.7 0.00 0.00 0.00 68 1014.7
20260904035533 27 88 8.0 9.7 0.00 0.00 0.00 67 1014.7
20260904035436 27 88 6.4 9.7 0.00 0.00 0.00 67 1014.7
20260904035335 27 88 8.0 9.7 0.00 0.00 0.00 67 1014.7
20260904035254 27 90 8.0 9.7 0.00 0.00 0.00 67 1014.7
20260904035131 27 103 8.0 9.7 0.00 0.00 0.00 67 1014.7
20260904035029 26 117 8.0 9.7 0.00 0.00 0.00 68 1014.7
20260904034926 26 143 8.0 9.7 0.00 0.00 0.00 68 1014.7
20260904034843 26 143 8.0 9.7 0.00 0.00 0.00 68 1014.7
20260904034743 26 144 6.4 8.0 0.00 0.00 0.00 68 1014.7
20260904034713 26 144 6.4 8.0 0.00 0.00 0.00 69 1014.7
20260904034554 26 145 6.4 8.0 0.00 0.00 0.00 69 1014.7
20260904034431 26 144 4.8 8.0 0.00 0.00 0.00 69 1014.7
20260904034329 26 143 6.4 8.0 0.00 0.00 0.00 69 1014.7
20260904034227 26 141 4.8 8.0 0.00 0.00 0.00 69 1014.8
20260904034125 26 144 4.8 8.0 0.00 0.00 0.00 69 1014.8
20260904034043 26 144 4.8 8.0 0.00 0.00 0.00 68 1014.8
20260904033941 26 144 6.4 9.7 0.00 0.00 0.00 68 1014.8
20260904033839 26 144 4.8 9.7 0.00 0.00 0.00 69 1014.8
20260904033742 26 141 4.8 9.7 0.00 0.00 0.00 69 1014.8
20260904033640 26 144 4.8 9.7 0.00 0.00 0.00 69 1014.8
20260904033535 26 143 4.8 9.7 0.00 0.00 0.00 69 1014.8
20260904033454 26 144 6.4 9.7 0.00 0.00 0.00 68 1014.8
20260904033332 26 144 6.4 9.7 0.00 0.00 0.00 68 1014.8
20260904033250 26 147 6.4 9.7 0.00 0.00 0.00 68 1014.8
20260904033200 26 148 6.4 9.7 0.00 0.00 0.00 68 1014.8
20260904033038 26 150 8.0 9.7 0.00 0.00 0.00 68 1014.8
20260904032941 26 150 6.4 9.7 0.00 0.00 0.00 69 1014.8
20260904032841 27 151 6.4 8.0 0.00 0.00 0.00 69 1014.8
20260904032720 27 151 4.8 8.0 0.00 0.00 0.00 70 1014.9
20260904032642 27 151 6.4 8.0 0.00 0.00 0.00 70 1014.9
20260904032540 27 151 8.0 8.0 0.00 0.00 0.00 70 1014.9
20260904032439 27 151 6.4 8.0 0.00 0.00 0.00 71 1014.9
20260904032359 27 154 4.8 8.0 0.00 0.00 0.00 71 1014.9
20260904032242 27 154 4.8 8.0 0.00 0.00 0.00 71 1014.9
20260904032140 27 155 6.4 8.0 0.00 0.00 0.00 71 1014.9
20260904032039 27 154 6.4 8.0 0.00 0.00 0.00 71 1014.9
20260904031957 27 152 6.4 8.0 0.00 0.00 0.00 70 1014.9
20260904031854 27 155 3.2 8.0 0.00 0.00 0.00 70 1014.9
20260904031753 27 152 3.2 8.0 0.00 0.00 0.00 71 1014.9
20260904031701 27 155 4.8 8.0 0.00 0.00 0.00 71 1014.9
20260904031540 27 155 4.8 8.0 0.00 0.00 0.00 70 1014.9
20260904031438 27 161 3.2 8.0 0.00 0.00 0.00 71 1014.9
20260904031341 27 162 4.8 8.0 0.00 0.00 0.00 71 1014.9
20260904031239 27 162 4.8 8.0 0.00 0.00 0.00 71 1014.0
20260904031137 27 162 4.8 8.0 0.00 0.00 0.00 70 1014.0
20260904031036 27 162 3.2 8.0 0.00 0.00 0.00 70 1014.0
20260904030934 27 161 3.2 8.0 0.00 0.00 0.00 70 1014.0
20260904030832 27 162 3.2 8.0 0.00 0.00 0.00 70 1014.0
20260904030734 27 161 3.2 8.0 0.00 0.00 0.00 70 1014.0
20260904030634 27 162 4.8 8.0 0.00 0.00 0.00 70 1014.0
20260904030553 27 162 4.8 8.0 0.00 0.00 0.00 71 1014.0
20260904030429 27 162 3.2 8.0 0.00 0.00 0.00 70 1014.0
20260904030329 27 162 4.8 8.0 0.00 0.00 0.00 70 1014.0
20260904030239 27 162 4.8 8.0 0.00 0.00 0.00 71 1014.0
20260904030150 27 164 4.8 8.0 0.00 0.00 0.00 70 1014.0
20260904030026 27 165 4.8 8.0 0.00 0.00 0.00 70 1014.0
20260904025930 27 162 4.8 8.0 0.00 0.00 0.00 70 1014.0
20260904025830 27 161 4.8 8.0 0.00 0.00 0.00 70 1014.0
20260904025728 27 164 4.8 8.0 0.00 0.00 0.00 70 1014.0
20260904025646 27 164 4.8 8.0 0.00 0.00 0.00 70 1014.0
20260904025605 27 165 4.8 8.0 0.00 0.00 0.00 70 1014.0
20260904025442 27 164 4.8 8.0 0.00 0.00 0.00 70 1014.0
20260904025340 27 164 4.8 8.0 0.00 0.00 0.00 70 1014.0
20260904025224 27 164 4.8 8.0 0.00 0.00 0.00 70 1014.0
20260904025142 27 162 4.8 8.0 0.00 0.00 0.00 70 1014.0
20260904025039 27 164 4.8 8.0 0.00 0.00 0.00 70 1014.0
20260904024937 27 162 4.8 8.0 0.00 0.00 0.00 70 1014.0
20260904024836 27 165 6.4 8.0 0.00 0.00 0.00 70 1014.0
20260904024705 27 164 4.8 8.0 0.00 0.00 0.00 69 1014.0
20260904024602 27 164 4.8 8.0 0.00 0.00 0.00 69 1014.0
20260904024443 27 158 4.8 8.0 0.00 0.00 0.00 69 1014.0
20260904024402 27 164 6.4 8.0 0.00 0.00 0.00 69 1014.0
20260904024259 27 164 6.4 8.0 0.00 0.00 0.00 69 1014.0
20260904024137 27 160 4.8 8.0 0.00 0.00 0.00 69 1014.0
20260904024035 27 164 4.8 8.0 0.00 0.00 0.00 70 1014.0
20260904023933 27 164 4.8 6.4 0.00 0.00 0.00 70 1014.0
20260904023832 27 164 4.8 6.4 0.00 0.00 0.00 70 1014.0
20260904023751 27 164 4.8 6.4 0.00 0.00 0.00 70 1014.0
20260904023634 27 165 4.8 4.8 0.00 0.00 0.00 69 1014.0
20260904023531 27 164 3.2 6.4 0.00 0.00 0.00 69 1014.0
20260904023451 27 162 4.8 6.4 0.00 0.00 0.00 69 1014.0
20260904023328 27 164 4.8 6.4 0.00 0.00 0.00 69 1014.0
20260904023257 27 164 4.8 6.4 0.00 0.00 0.00 69 1014.0
20260904023147 27 164 3.2 6.4 0.00 0.00 0.00 69 1014.0
20260904023043 27 164 3.2 6.4 0.00 0.00 0.00 69 1014.0
20260904022942 27 162 3.2 6.4 0.00 0.00 0.00 68 1014.0
20260904022840 27 162 3.2 6.4 0.00 0.00 0.00 68 1014.0
20260904022736 27 165 4.8 6.4 0.00 0.00 0.00 69 1013.8
20260904022639 27 158 3.2 8.0 0.00 0.00 0.00 69 1013.8
20260904022557 27 164 4.8 8.0 0.00 0.00 0.00 69 1013.8
20260904022433 27 160 4.8 8.0 0.00 0.00 0.00 69 1013.8
20260904022330 27 161 4.8 8.0 0.00 0.00 0.00 69 1013.8
20260904022229 27 165 3.2 8.0 0.00 0.00 0.00 69 1013.8
20260904022128 27 164 4.8 8.0 0.00 0.00 0.00 68 1013.8
20260904022027 27 165 4.8 8.0 0.00 0.00 0.00 69 1013.8
20260904021946 27 164 4.8 8.0 0.00 0.00 0.00 69 1013.8
20260904021825 27 167 4.8 8.0 0.00 0.00 0.00 68 1013.8
20260904021736 27 165 4.8 8.0 0.00 0.00 0.00 68 1013.8
20260904021646 27 167 6.4 8.0 0.00 0.00 0.00 67 1013.8
20260904021543 27 167 4.8 8.0 0.00 0.00 0.00 67 1013.8
20260904021441 27 167 4.8 8.0 0.00 0.00 0.00 67 1013.8
20260904021340 27 165 3.2 4.8 0.00 0.00 0.00 67 1013.8
20260904021238 27 167 3.2 4.8 0.00 0.00 0.00 67 1013.8
20260904021157 27 165 3.2 4.8 0.00 0.00 0.00 67 1013.8
20260904021039 27 167 3.2 4.8 0.00 0.00 0.00 67 1013.8
20260904020937 27 165 3.2 4.8 0.00 0.00 0.00 67 1013.8
20260904020835 27 167 3.2 4.8 0.00 0.00 0.00 66 1013.8
20260904020733 27 165 3.2 4.8 0.00 0.00 0.00 66 1013.8
20260904020651 27 167 1.6 3.2 0.00 0.00 0.00 66 1013.8
20260904020528 27 167 1.6 4.8 0.00 0.00 0.00 66 1013.8
20260904020449 27 164 1.6 4.8 0.00 0.00 0.00 66 1013.8
20260904020329 27 164 0.0 4.8 0.00 0.00 0.00 66 1013.8
20260904020228 27 167 1.6 4.8 0.00 0.00 0.00 66 1013.8
20260904020157 27 165 1.6 4.8 0.00 0.00 0.00 66 1013.8
20260904020035 27 164 1.6 4.8 0.00 0.00 0.00 66 1013.8
20260904015932 27 165 1.6 4.8 0.00 0.00 0.00 66 1013.8
20260904015852 27 167 1.6 6.4 0.00 0.00 0.00 66 1013.8
20260904015729 27 165 3.2 6.4 0.00 0.00 0.00 66 1013.4
20260904015627 27 165 3.2 6.4 0.00 0.00 0.00 66 1013.4
20260904015528 27 167 3.2 6.4 0.00 0.00 0.00 66 1013.4
20260904015428 27 165 3.2 6.4 0.00 0.00 0.00 66 1013.4
20260904015327 28 165 3.2 6.4 0.00 0.00 0.00 66 1013.4
20260904015227 28 167 3.2 6.4 0.00 0.00 0.00 66 1013.4
20260904015126 28 167 3.2 8.0 0.00 0.00 0.00 66 1013.4
20260904015025 28 165 3.2 8.0 0.00 0.00 0.00 66 1013.4
20260904014928 28 164 3.2 8.0 0.00 0.00 0.00 66 1013.4
20260904014828 28 165 3.2 8.0 0.00 0.00 0.00 66 1013.4
20260904014737 28 167 3.2 8.0 0.00 0.00 0.00 66 1013.4
20260904014647 28 165 3.2 8.0 0.00 0.00 0.00 67 1013.4
20260904014545 28 167 3.2 8.0 0.00 0.00 0.00 67 1013.4
20260904014443 28 165 3.2 8.0 0.00 0.00 0.00 67 1013.4
20260904014342 28 167 4.8 8.0 0.00 0.00 0.00 67 1013.4
20260904014240 28 167 4.8 8.0 0.00 0.00 0.00 67 1013.3
20260904014158 28 162 3.2 8.0 0.00 0.00 0.00 68 1013.3
20260904014040 28 165 3.2 8.0 0.00 0.00 0.00 68 1013.3
20260904013940 28 167 3.2 8.0 0.00 0.00 0.00 67 1013.3
20260904013840 28 167 4.8 8.0 0.00 0.00 0.00 67 1013.3
20260904013737 28 165 4.8 8.0 0.00 0.00 0.00 67 1013.3
20260904013637 28 165 4.8 8.0 0.00 0.00 0.00 66 1013.3
20260904013535 28 167 6.4 8.0 0.00 0.00 0.00 66 1013.3
20260904013437 28 165 4.8 8.0 0.00 0.00 0.00 66 1013.3
20260904013334 28 168 3.2 8.0 0.00 0.00 0.00 66 1013.3
20260904013253 28 168 4.8 8.0 0.00 0.00 0.00 66 1013.3
20260904013224 28 169 3.2 6.4 0.00 0.00 0.00 66 1013.3
20260904013039 28 168 3.2 6.4 0.00 0.00 0.00 66 1013.3
20260904012936 28 168 3.2 6.4 0.00 0.00 0.00 66 1013.3
20260904012833 28 167 3.2 6.4 0.00 0.00 0.00 66 1013.3
20260904012732 28 169 3.2 6.4 0.00 0.00 0.00 66 1013.2
20260904012636 28 168 3.2 6.4 0.00 0.00 0.00 65 1013.2
20260904012536 28 165 4.8 6.4 0.00 0.00 0.00 65 1013.2
20260904012437 28 168 3.2 4.8 0.00 0.00 0.00 66 1013.2
20260904012335 28 169 1.6 4.8 0.00 0.00 0.00 66 1013.2
20260904012235 28 168 3.2 4.8 0.00 0.00 0.00 66 1013.2
20260904012135 28 168 3.2 8.0 0.00 0.00 0.00 65 1013.2
20260904012054 28 168 3.2 8.0 0.00 0.00 0.00 65 1013.2
20260904011936 28 169 3.2 8.0 0.00 0.00 0.00 65 1013.2
20260904011834 28 169 3.2 8.0 0.00 0.00 0.00 65 1013.2
20260904011733 28 168 4.8 8.0 0.00 0.00 0.00 65 1013.2
20260904011703 28 168 3.2 8.0 0.00 0.00 0.00 65 1013.2
20260904011540 28 168 3.2 8.0 0.00 0.00 0.00 65 1013.2
20260904011440 28 167 4.8 8.0 0.00 0.00 0.00 65 1013.2
20260904011338 28 169 4.8 8.0 0.00 0.00 0.00 66 1013.2
20260904011236 28 169 4.8 8.0 0.00 0.00 0.00 65 1013.1
20260904011139 28 169 3.2 8.0 0.00 0.00 0.00 65 1013.1
20260904011038 28 171 3.2 8.0 0.00 0.00 0.00 65 1013.1
20260904010940 28 168 3.2 8.0 0.00 0.00 0.00 65 1013.1
20260904010859 28 169 4.8 8.0 0.00 0.00 0.00 66 1013.1
20260904010737 28 169 4.8 8.0 0.00 0.00 0.00 65 1013.1
20260904010634 28 169 4.8 8.0 0.00 0.00 0.00 65 1013.1
20260904010533 28 169 4.8 8.0 0.00 0.00 0.00 65 1013.1
20260904010436 28 169 4.8 8.0 0.00 0.00 0.00 65 1013.1
20260904010333 28 169 4.8 8.0 0.00 0.00 0.00 65 1013.1
20260904010244 28 171 4.8 8.0 0.00 0.00 0.00 65 1013.1
20260904010154 28 172 4.8 8.0 0.00 0.00 0.00 66 1013.1
20260904010031 28 171 3.2 8.0 0.00 0.00 0.00 65 1013.1
20260904005950 28 171 4.8 8.0 0.00 0.00 0.00 65 1013.1
20260904005827 28 172 6.4 8.0 0.00 0.00 0.00 65 1013.1
20260904005729 28 181 3.2 8.0 0.00 0.00 0.00 65 1013.0
20260904005628 28 181 4.8 8.0 0.00 0.00 0.00 65 1013.0
20260904005547 28 182 6.4 8.0 0.00 0.00 0.00 65 1013.0
20260904005424 28 185 4.8 8.0 0.00 0.00 0.00 65 1013.0
20260904005342 28 185 4.8 4.8 0.00 0.00 0.00 64 1013.0
20260904005240 28 185 3.2 4.8 0.00 0.00 0.00 64 1013.0
20260904005138 28 185 3.2 4.8 0.00 0.00 0.00 64 1013.0
20260904005036 28 185 3.2 4.8 0.00 0.00 0.00 64 1013.0
20260904004940 28 185 3.2 4.8 0.00 0.00 0.00 64 1013.0
20260904004838 28 185 3.2 4.8 0.00 0.00 0.00 64 1013.0
20260904004734 28 185 3.2 4.8 0.00 0.00 0.00 64 1013.0
20260904004704 28 181 3.2 4.8 0.00 0.00 0.00 64 1013.0
20260904004542 28 184 3.2 8.0 0.00 0.00 0.00 64 1013.0
20260904004440 28 184 3.2 8.0 0.00 0.00 0.00 63 1013.0
20260904004337 28 185 3.2 8.0 0.00 0.00 0.00 63 1013.0
20260904004240 28 184 1.6 12.9 0.00 0.00 0.00 63 1013.0
20260904004139 28 185 1.6 12.9 0.00 0.00 0.00 63 1013.0
20260904004035 28 182 1.6 12.9 0.00 0.00 0.00 63 1013.0
20260904003933 28 185 1.6 12.9 0.00 0.00 0.00 62 1013.0
20260904003832 28 185 1.6 12.9 0.00 0.00 0.00 62 1013.0
20260904003731 28 185 3.2 12.9 0.00 0.00 0.00 62 1013.0
20260904003629 28 198 3.2 12.9 0.00 0.00 0.00 62 1013.0
20260904003532 28 200 3.2 12.9 0.00 0.00 0.00 62 1013.0
20260904003430 28 199 4.8 12.9 0.00 0.00 0.00 62 1013.0
20260904003327 28 203 6.4 12.9 0.00 0.00 0.00 62 1013.0
20260904003236 28 181 6.4 9.7 0.00 0.00 0.00 62 1013.0
20260904003146 28 152 4.8 9.7 0.00 0.00 0.00 62 1013.0
20260904003042 28 71 4.8 8.0 0.00 0.00 0.00 62 1013.0
20260904002940 28 71 4.8 8.0 0.00 0.00 0.00 62 1013.0
20260904002838 28 71 4.8 8.0 0.00 0.00 0.00 62 1013.0
20260904002756 28 66 4.8 8.0 0.00 0.00 0.00 62 1012.7
20260904002634 29 69 3.2 8.0 0.00 0.00 0.00 62 1012.7
20260904002538 29 69 3.2 8.0 0.00 0.00 0.00 62 1012.7
20260904002437 29 69 3.2 8.0 0.00 0.00 0.00 62 1012.7
20260904002334 29 68 3.2 8.0 0.00 0.00 0.00 62 1012.7
20260904002233 29 68 3.2 8.0 0.00 0.00 0.00 62 1012.7
20260904002133 29 69 3.2 8.0 0.00 0.00 0.00 62 1012.7
20260904002031 29 68 3.2 8.0 0.00 0.00 0.00 62 1012.7
20260904001933 29 65 4.8 8.0 0.00 0.00 0.00 62 1012.7
20260904001833 29 56 4.8 6.4 0.00 0.00 0.00 62 1012.7
20260904001732 29 52 4.8 6.4 0.00 0.00 0.00 61 1012.7
20260904001701 29 44 3.2 4.8 0.00 0.00 0.00 62 1012.7
20260904001538 29 40 3.2 4.8 0.00 0.00 0.00 61 1012.7
20260904001438 29 44 1.6 4.8 0.00 0.00 0.00 61 1012.7
20260904001356 29 42 3.2 4.8 0.00 0.00 0.00 61 1012.7
20260904001235 29 42 3.2 4.8 0.00 0.00 0.00 61 1012.8
20260904001156 29 42 3.2 4.8 0.00 0.00 0.00 61 1012.8
20260904001038 29 42 3.2 4.8 0.00 0.00 0.00 61 1012.8
20260904000936 29 42 0.0 0.0 0.00 0.00 0.00 61 1012.8
20260904000835 29 42 0.0 1.6 0.00 0.00 0.00 61 1012.8
20260904000733 29 40 0.0 3.2 0.00 0.00 0.00 61 1012.8
20260904000632 29 42 0.0 3.2 0.00 0.00 0.00 60 1012.8
20260904000530 29 42 0.0 3.2 0.00 0.00 0.00 61 1012.8
20260904000433 29 40 0.0 3.2 0.00 0.00 0.00 60 1012.8
20260904000333 29 42 0.0 3.2 0.00 0.00 0.00 60 1012.8
20260904000303 29 42 0.0 3.2 0.00 0.00 0.00 59 1012.8
20260904000151 29 42 0.0 3.2 0.00 0.00 0.00 59 1012.8
20260904000028 29 44 0.0 3.2 0.00 0.00 0.00 59 1012.8
20260903235924 29 44 3.2 3.2 0.00 0.00 0.00 60 1012.8
20260903235843 29 42 1.6 3.2 0.00 0.00 0.00 61 1012.8
20260903235742 29 42 1.6 4.8 0.00 0.00 0.00 62 1012.7
20260903235700 30 42 0.0 4.8 0.00 0.00 0.00 62 1012.7
20260903235604 30 42 0.0 4.8 0.00 0.00 0.00 61 1012.7
20260903235440 30 42 0.0 4.8 0.00 0.00 0.00 62 1012.7
20260903235339 30 42 0.0 4.8 0.00 0.00 0.00 61 1012.7
20260903235238 30 42 0.0 4.8 0.00 0.00 0.00 61 1012.7
20260903235156 30 44 1.6 4.8 0.00 0.00 0.00 61 1012.7
20260903235033 30 42 1.6 4.8 0.00 0.00 0.00 62 1012.7
20260903234952 30 42 1.6 4.8 0.00 0.00 0.00 62 1012.7
20260903234829 30 44 1.6 4.8 0.00 0.00 0.00 62 1012.7
20260903234744 30 42 3.2 4.8 0.00 0.00 0.00 62 1012.7
20260903234653 30 41 3.2 4.8 0.00 0.00 0.00 62 1012.7
20260903234531 30 40 3.2 4.8 0.00 0.00 0.00 62 1012.7
20260903234449 30 42 1.6 4.8 0.00 0.00 0.00 62 1012.7
20260903234326 30 41 1.6 3.2 0.00 0.00 0.00 61 1012.7
20260903234245 30 41 1.6 3.2 0.00 0.00 0.00 60 1012.7
20260903234203 30 41 1.6 3.2 0.00 0.00 0.00 60 1012.7
20260903234101 30 41 0.0 3.2 0.00 0.00 0.00 60 1012.7
20260903233940 30 41 0.0 0.0 0.00 0.00 0.00 60 1012.7
20260903233824 30 41 0.0 0.0 0.00 0.00 0.00 60 1012.7
20260903233742 30 41 0.0 0.0 0.00 0.00 0.00 60 1012.7
20260903233640 30 41 0.0 0.0 0.00 0.00 0.00 60 1012.7
20260903233558 30 41 0.0 0.0 0.00 0.00 0.00 60 1012.7
20260903233435 30 41 0.0 0.0 0.00 0.00 0.00 60 1012.7
20260903233354 30 40 0.0 0.0 0.00 0.00 0.00 60 1012.7
20260903233230 30 41 0.0 0.0 0.00 0.00 0.00 60 1012.7
20260903233159 30 41 0.0 0.0 0.00 0.00 0.00 60 1012.7
20260903233040 30 41 0.0 0.0 0.00 0.00 0.00 60 1012.7
20260903232939 30 38 0.0 0.0 0.00 0.00 0.00 60 1012.7
20260903232839 30 41 0.0 0.0 0.00 0.00 0.00 59 1012.7
20260903232757 30 41 0.0 0.0 0.00 0.00 0.00 59 1012.6
20260903232634 30 37 0.0 0.0 0.00 0.00 0.00 59 1012.6
20260903232533 30 41 0.0 0.0 0.00 0.00 0.00 59 1012.6
20260903232432 30 41 0.0 0.0 0.00 0.00 0.00 59 1012.6
20260903232330 30 41 0.0 0.0 0.00 0.00 0.00 59 1012.6
20260903232232 30 41 0.0 0.0 0.00 0.00 0.00 59 1012.6
20260903232130 30 41 0.0 0.0 0.00 0.00 0.00 59 1012.6
20260903232029 30 41 0.0 0.0 0.00 0.00 0.00 59 1012.6
20260903231928 30 41 0.0 0.0 0.00 0.00 0.00 59 1012.6
20260903231829 30 40 0.0 0.0 0.00 0.00 0.00 59 1012.6
20260903231759 30 40 0.0 0.0 0.00 0.00 0.00 59 1012.6
20260903231647 30 41 0.0 0.0 0.00 0.00 0.00 59 1012.6
20260903231529 30 34 0.0 0.0 0.00 0.00 0.00 59 1012.6
20260903231427 30 41 0.0 0.0 0.00 0.00 0.00 59 1012.6
20260903231325 30 42 0.0 0.0 0.00 0.00 0.00 59 1012.6
20260903231243 30 41 0.0 0.0 0.00 0.00 0.00 59 1012.7
20260903231142 30 37 0.0 0.0 0.00 0.00 0.00 59 1012.7
20260903231040 30 41 0.0 1.6 0.00 0.00 0.00 59 1012.7
20260903230938 30 41 0.0 3.2 0.00 0.00 0.00 58 1012.7
20260903230840 30 41 0.0 3.2 0.00 0.00 0.00 58 1012.7
20260903230739 30 38 0.0 3.2 0.00 0.00 0.00 58 1012.7
20260903230636 30 40 0.0 4.8 0.00 0.00 0.00 58 1012.7
20260903230533 30 42 0.0 4.8 0.00 0.00 0.00 58 1012.7
20260903230431 30 41 0.0 4.8 0.00 0.00 0.00 59 1012.7
20260903230329 30 41 0.0 4.8 0.00 0.00 0.00 59 1012.7
20260903230238 30 40 0.0 4.8 0.00 0.00 0.00 59 1012.7
20260903230150 30 38 1.6 4.8 0.00 0.00 0.00 58 1012.7
20260903230031 30 40 0.0 4.8 0.00 0.00 0.00 58 1012.7
20260903225949 30 41 0.0 4.8 0.00 0.00 0.00 58 1012.7
20260903225847 30 37 1.6 4.8 0.00 0.00 0.00 58 1012.7
20260903225746 30 40 3.2 4.8 0.00 0.00 0.00 58 1012.6
20260903225704 30 38 3.2 4.8 0.00 0.00 0.00 58 1012.6
20260903225543 30 40 1.6 3.2 0.00 0.00 0.00 58 1012.6
20260903225441 30 41 1.6 3.2 0.00 0.00 0.00 57 1012.6
20260903225340 30 41 1.6 3.2 0.00 0.00 0.00 57 1012.6
20260903225243 30 41 1.6 3.2 0.00 0.00 0.00 57 1012.6
20260903225142 30 41 0.0 4.8 0.00 0.00 0.00 57 1012.6
20260903225041 30 41 0.0 4.8 0.00 0.00 0.00 56 1012.6
20260903224959 30 40 0.0 8.0 0.00 0.00 0.00 56 1012.6
20260903224857 30 41 0.0 8.0 0.00 0.00 0.00 56 1012.6
20260903224754 30 41 0.0 8.0 0.00 0.00 0.00 56 1012.6
20260903224703 30 40 0.0 8.0 0.00 0.00 0.00 56 1012.6
20260903224539 30 41 1.6 8.0 0.00 0.00 0.00 56 1012.6
20260903224438 30 41 1.6 8.0 0.00 0.00 0.00 56 1012.6
20260903224401 30 41 1.6 8.0 0.00 0.00 0.00 56 1012.6
20260903224238 30 41 3.2 8.0 0.00 0.00 0.00 56 1012.4
20260903224136 30 40 4.8 8.0 0.00 0.00 0.00 56 1012.4
20260903224036 30 41 4.8 8.0 0.00 0.00 0.00 56 1012.4
20260903223936 30 38 1.6 4.8 0.00 0.00 0.00 56 1012.4
20260903223835 30 41 1.6 4.8 0.00 0.00 0.00 56 1012.4
20260903223733 30 37 0.0 4.8 0.00 0.00 0.00 56 1012.4
20260903223635 30 41 3.2 4.8 0.00 0.00 0.00 56 1012.4
20260903223534 30 41 0.0 4.8 0.00 0.00 0.00 56 1012.4
20260903223432 30 41 1.6 4.8 0.00 0.00 0.00 56 1012.4
20260903223330 30 38 0.0 4.8 0.00 0.00 0.00 56 1012.4
20260903223251 30 40 1.6 4.8 0.00 0.00 0.00 56 1012.4
20260903223223 30 41 1.6 4.8 0.00 0.00 0.00 56 1012.4
20260903223037 30 41 3.2 6.4 0.00 0.00 0.00 56 1012.4
20260903222937 30 40 3.2 8.0 0.00 0.00 0.00 56 1012.4
20260903222901 30 40 3.2 8.0 0.00 0.00 0.00 56 1012.4
20260903222739 30 40 4.8 8.0 0.00 0.00 0.00 55 1012.4
20260903222657 30 40 3.2 8.0 0.00 0.00 0.00 55 1012.4
20260903222555 30 40 1.6 8.0 0.00 0.00 0.00 55 1012.4
20260903222433 30 40 0.0 8.0 0.00 0.00 0.00 55 1012.4
20260903222331 30 40 1.6 8.0 0.00 0.00 0.00 55 1012.4
20260903222229 30 40 3.2 8.0 0.00 0.00 0.00 55 1012.4
20260903222149 30 40 4.8 8.0 0.00 0.00 0.00 56 1012.4
20260903222031 30 35 3.2 8.0 0.00 0.00 0.00 56 1012.4
20260903221929 30 40 3.2 8.0 0.00 0.00 0.00 56 1012.4
20260903221828 30 40 0.0 8.0 0.00 0.00 0.00 56 1012.4
20260903221738 30 40 4.8 8.0 0.00 0.00 0.00 56 1012.4
20260903221646 30 40 6.4 8.0 0.00 0.00 0.00 56 1012.4
20260903221524 30 35 3.2 8.0 0.00 0.00 0.00 55 1012.4
20260903221441 30 37 1.6 8.0 0.00 0.00 0.00 55 1012.4
20260903221324 30 35 4.8 8.0 0.00 0.00 0.00 55 1012.4
20260903221243 30 32 4.8 8.0 0.00 0.00 0.00 55 1012.4
20260903221142 30 35 1.6 3.2 0.00 0.00 0.00 55 1012.4
20260903221041 30 35 0.0 1.6 0.00 0.00 0.00 55 1012.4
20260903220939 30 35 0.0 1.6 0.00 0.00 0.00 54 1012.4
20260903220837 30 35 0.0 1.6 0.00 0.00 0.00 55 1012.4
20260903220757 30 35 0.0 1.6 0.00 0.00 0.00 55 1012.4
20260903220633 30 35 0.0 1.6 0.00 0.00 0.00 55 1012.4
20260903220536 30 35 0.0 1.6 0.00 0.00 0.00 54 1012.4
20260903220435 30 35 0.0 3.2 0.00 0.00 0.00 54 1012.4
20260903220336 30 32 0.0 3.2 0.00 0.00 0.00 54 1012.4
20260903220244 30 34 0.0 3.2 0.00 0.00 0.00 54 1012.4
20260903220153 30 34 0.0 3.2 0.00 0.00 0.00 55 1012.4
20260903220029 30 35 0.0 3.2 0.00 0.00 0.00 55 1012.4
20260903215948 30 35 0.0 4.8 0.00 0.00 0.00 55 1012.4
20260903215829 30 34 0.0 4.8 0.00 0.00 0.00 54 1012.4
20260903215727 30 35 0.0 4.8 0.00 0.00 0.00 54 1012.4
20260903215626 30 35 3.2 4.8 0.00 0.00 0.00 54 1012.4
20260903215524 30 34 1.6 4.8 0.00 0.00 0.00 53 1012.4
20260903215441 30 35 1.6 4.8 0.00 0.00 0.00 53 1012.4
20260903215340 30 35 1.6 4.8 0.00 0.00 0.00 52 1012.4
20260903215239 30 34 3.2 4.8 0.00 0.00 0.00 52 1012.4
20260903215142 30 35 3.2 8.0 0.00 0.00 0.00 53 1012.4
20260903215039 30 35 3.2 8.0 0.00 0.00 0.00 54 1012.4
20260903214937 30 34 3.2 8.0 0.00 0.00 0.00 55 1012.4
20260903214835 30 34 3.2 8.0 0.00 0.00 0.00 55 1012.4
20260903214733 30 35 3.2 8.0 0.00 0.00 0.00 55 1012.4
20260903214701 30 35 3.2 9.7 0.00 0.00 0.00 55 1012.4
20260903214539 30 35 3.2 9.7 0.00 0.00 0.00 53 1012.4
20260903214458 30 37 3.2 9.7 0.00 0.00 0.00 52 1012.4
20260903214338 30 34 4.8 9.7 0.00 0.00 0.00 52 1012.4
20260903214237 30 35 6.4 9.7 0.00 0.00 0.00 53 1012.6
20260903214134 30 34 6.4 9.7 0.00 0.00 0.00 53 1012.6
20260903214033 30 37 4.8 9.7 0.00 0.00 0.00 53 1012.6
20260903213931 30 32 4.8 9.7 0.00 0.00 0.00 55 1012.6
20260903213830 30 37 6.4 9.7 0.00 0.00 0.00 55 1012.6
20260903213727 30 37 3.2 9.7 0.00 0.00 0.00 54 1012.6
20260903213631 30 35 3.2 9.7 0.00 0.00 0.00 53 1012.6
20260903213530 30 38 3.2 9.7 0.00 0.00 0.00 53 1012.6
20260903213447 30 37 4.8 9.7 0.00 0.00 0.00 55 1012.6
20260903213325 30 37 4.8 11.3 0.00 0.00 0.00 55 1012.6
20260903213244 30 38 4.8 11.3 0.00 0.00 0.00 55 1012.6
20260903213154 30 37 6.4 11.3 0.00 0.00 0.00 54 1012.6
20260903213030 30 35 4.8 11.3 0.00 0.00 0.00 55 1012.6
20260903212928 30 38 4.8 11.3 0.00 0.00 0.00 55 1012.6
20260903212850 30 38 3.2 11.3 0.00 0.00 0.00 56 1012.6
20260903212728 30 37 6.4 11.3 0.00 0.00 0.00 56 1012.6
20260903212647 30 38 8.0 11.3 0.00 0.00 0.00 55 1012.6
20260903212544 30 37 8.0 11.3 0.00 0.00 0.00 58 1012.6
20260903212502 30 37 9.7 11.3 0.00 0.00 0.00 57 1012.6
20260903212339 30 38 8.0 11.3 0.00 0.00 0.00 57 1012.6
20260903212238 30 34 6.4 11.3 0.00 0.00 0.00 57 1012.6
20260903212134 30 35 4.8 11.3 0.00 0.00 0.00 56 1012.6
20260903212037 30 35 6.4 11.3 0.00 0.00 0.00 56 1012.6
20260903211935 30 37 9.7 11.3 0.00 0.00 0.00 56 1012.6
20260903211833 30 34 8.0 11.3 0.00 0.00 0.00 57 1012.6
20260903211732 30 32 8.0 11.3 0.00 0.00 0.00 57 1012.6
20260903211702 30 30 8.0 12.9 0.00 0.00 0.00 56 1012.6
20260903211542 30 34 8.0 12.9 0.00 0.00 0.00 56 1012.6
20260903211438 30 30 8.0 12.9 0.00 0.00 0.00 56 1012.6
20260903211337 30 31 8.0 12.9 0.00 0.00 0.00 56 1012.6
20260903211240 30 31 6.4 12.9 0.00 0.00 0.00 56 1013.7
20260903211142 30 31 6.4 12.9 0.00 0.00 0.00 56 1013.7
20260903211041 30 31 6.4 16.1 0.00 0.00 0.00 55 1013.7
20260903210938 30 31 8.0 16.1 0.00 0.00 0.00 55 1013.7
20260903210836 30 28 9.7 19.3 0.00 0.00 0.00 54 1013.7
20260903210735 31 28 11.3 19.3 0.00 0.00 0.00 54 1013.7
20260903210636 31 25 9.7 19.3 0.00 0.00 0.00 54 1013.7
20260903210540 31 32 6.4 19.3 0.00 0.00 0.00 55 1013.7
20260903210458 31 32 8.0 19.3 0.00 0.00 0.00 55 1013.7
20260903210336 31 34 11.3 19.3 0.00 0.00 0.00 56 1013.7
20260903210253 31 34 12.9 19.3 0.00 0.00 0.00 54 1013.7
20260903210203 31 47 14.5 19.3 0.00 0.00 0.00 54 1013.7
20260903210040 31 25 14.5 19.3 0.00 0.00 0.00 54 1013.7
20260903205938 31 21 11.3 19.3 0.00 0.00 0.00 55 1013.7
20260903205836 31 42 11.3 19.3 0.00 0.00 0.00 54 1013.7
20260903205739 31 10 12.9 19.3 0.00 0.00 0.00 53 1013.7
20260903205637 31 24 16.1 19.3 0.00 0.00 0.00 53 1013.7
20260903205536 31 27 14.5 19.3 0.00 0.00 0.00 53 1013.7
20260903205435 31 42 12.9 19.3 0.00 0.00 0.00 53 1013.7
20260903205331 32 32 12.9 19.3 0.00 0.00 0.00 52 1013.7
20260903205230 32 48 11.3 19.3 0.00 0.00 0.00 51 1013.7
20260903205128 32 21 12.9 19.3 0.00 0.00 0.00 50 1013.7
20260903205034 32 8 14.5 19.3 0.00 0.00 0.00 50 1013.7
20260903204933 32 51 12.9 19.3 0.00 0.00 0.00 49 1013.7
20260903204830 32 35 14.5 19.3 0.00 0.00 0.00 49 1013.7
20260903204750 32 37 14.5 19.3 0.00 0.00 0.00 49 1013.7
20260903204659 32 32 12.9 19.3 0.00 0.00 0.00 48 1013.7
20260903204536 32 31 9.7 16.1 0.00 0.00 0.00 48 1013.7
20260903204455 32 3 9.7 16.1 0.00 0.00 0.00 47 1013.7
20260903204332 32 38 9.7 12.9 0.00 0.00 0.00 48 1013.7
20260903204234 32 49 11.3 12.9 0.00 0.00 0.00 50 1013.8
20260903204133 32 56 9.7 12.9 0.00 0.00 0.00 50 1013.8
20260903204030 32 343 8.0 11.3 0.00 0.00 0.00 48 1013.8
20260903203947 32 23 8.0 11.3 0.00 0.00 0.00 47 1013.8
20260903203825 32 359 4.8 9.7 0.00 0.00 0.00 51 1013.8
20260903203742 32 261 1.6 4.8 0.00 0.00 0.00 50 1013.8
20260903203640 32 243 0.0 4.8 0.00 0.00 0.00 51 1013.8
20260903203559 32 246 0.0 6.4 0.00 0.00 0.00 52 1013.8
20260903203436 32 244 1.6 8.0 0.00 0.00 0.00 53 1013.8
20260903203339 32 243 3.2 9.7 0.00 0.00 0.00 52 1013.8
20260903203237 32 247 0.0 9.7 0.00 0.00 0.00 52 1013.8
20260903203206 32 246 0.0 9.7 0.00 0.00 0.00 50 1013.8
20260903203041 32 246 0.0 9.7 0.00 0.00 0.00 50 1013.8
20260903202939 32 244 0.0 9.7 0.00 0.00 0.00 49 1013.8
20260903202838 32 246 0.0 9.7 0.00 0.00 0.00 48 1013.8
20260903202757 32 246 1.6 9.7 0.00 0.00 0.00 50 1014.0
20260903202633 32 246 6.4 9.7 0.00 0.00 0.00 51 1014.0
20260903202555 32 246 3.2 9.7 0.00 0.00 0.00 52 1014.0
20260903202433 32 247 1.6 9.7 0.00 0.00 0.00 51 1014.0
20260903202334 32 247 3.2 12.9 0.00 0.00 0.00 52 1014.0
20260903202231 32 240 1.6 12.9 0.00 0.00 0.00 51 1014.0
20260903202130 32 243 0.0 12.9 0.00 0.00 0.00 50 1014.0
20260903202029 32 243 0.0 12.9 0.00 0.00 0.00 51 1014.0
20260903201949 32 240 3.2 12.9 0.00 0.00 0.00 51 1014.0
20260903201830 32 243 3.2 12.9 0.00 0.00 0.00 51 1014.0
20260903201758 32 209 1.6 12.9 0.00 0.00 0.00 51 1014.0
20260903201645 32 206 4.8 12.9 0.00 0.00 0.00 51 1014.0
20260903201542 32 226 6.4 12.9 0.00 0.00 0.00 50 1014.0
20260903201442 32 215 8.0 12.9 0.00 0.00 0.00 50 1014.0
20260903201342 32 184 1.6 12.9 0.00 0.00 0.00 50 1014.0
20260903201240 32 182 3.2 12.9 0.00 0.00 0.00 50 1014.2
20260903201139 32 176 3.2 12.9 0.00 0.00 0.00 51 1014.2
20260903201042 32 236 4.8 12.9 0.00 0.00 0.00 51 1014.2
20260903201000 32 237 8.0 12.9 0.00 0.00 0.00 51 1014.2
20260903200838 32 175 4.8 8.0 0.00 0.00 0.00 50 1014.2
20260903200735 32 171 3.2 11.3 0.00 0.00 0.00 51 1014.2
20260903200634 32 172 1.6 12.9 0.00 0.00 0.00 50 1014.2
20260903200532 32 172 3.2 12.9 0.00 0.00 0.00 50 1014.2
20260903200429 32 174 1.6 12.9 0.00 0.00 0.00 50 1014.2
20260903200327 32 172 3.2 12.9 0.00 0.00 0.00 50 1014.2
20260903200241 32 172 4.8 12.9 0.00 0.00 0.00 49 1014.2
20260903200152 32 128 3.2 12.9 0.00 0.00 0.00 49 1014.2
20260903200050 32 126 4.8 12.9 0.00 0.00 0.00 52 1014.2
20260903195926 32 127 9.7 12.9 0.00 0.00 0.00 51 1014.2
20260903195845 32 134 6.4 12.9 0.00 0.00 0.00 50 1014.2
20260903195742 32 138 9.7 12.9 0.00 0.00 0.00 51 1014.3
20260903195642 32 127 4.8 8.0 0.00 0.00 0.00 50 1014.3
20260903195541 32 130 3.2 8.0 0.00 0.00 0.00 50 1014.3
20260903195443 32 128 1.6 4.8 0.00 0.00 0.00 50 1014.3
20260903195402 31 130 1.6 4.8 0.00 0.00 0.00 49 1014.3
20260903195238 31 128 3.2 4.8 0.00 0.00 0.00 49 1014.3
20260903195137 31 124 3.2 8.0 0.00 0.00 0.00 52 1014.3
20260903195035 32 127 1.6 8.0 0.00 0.00 0.00 52 1014.3
20260903194954 32 121 0.0 8.0 0.00 0.00 0.00 50 1014.3
20260903194832 32 120 0.0 8.0 0.00 0.00 0.00 50 1014.3
20260903194729 32 121 0.0 8.0 0.00 0.00 0.00 51 1014.3
20260903194703 32 121 0.0 8.0 0.00 0.00 0.00 49 1014.3
20260903194540 32 120 0.0 8.0 0.00 0.00 0.00 50 1014.3
20260903194439 32 119 1.6 8.0 0.00 0.00 0.00 51 1014.3
20260903194338 32 121 4.8 8.0 0.00 0.00 0.00 53 1014.3
20260903194236 32 119 3.2 4.8 0.00 0.00 0.00 53 1014.3
20260903194154 32 116 1.6 4.8 0.00 0.00 0.00 53 1014.3
20260903194032 32 113 0.0 4.8 0.00 0.00 0.00 53 1014.3
20260903193935 32 114 0.0 4.8 0.00 0.00 0.00 53 1014.3
20260903193833 32 113 0.0 4.8 0.00 0.00 0.00 53 1014.3
20260903193732 32 113 0.0 4.8 0.00 0.00 0.00 52 1014.3
20260903193630 32 113 3.2 8.0 0.00 0.00 0.00 52 1014.3
20260903193527 32 114 1.6 8.0 0.00 0.00 0.00 52 1014.3
20260903193424 32 112 0.0 8.0 0.00 0.00 0.00 52 1014.3
20260903193344 32 113 0.0 8.0 0.00 0.00 0.00 53 1014.3
20260903193258 32 114 3.2 8.0 0.00 0.00 0.00 53 1014.3
20260903193147 32 114 3.2 8.0 0.00 0.00 0.00 53 1014.3
20260903193048 32 112 0.0 8.0 0.00 0.00 0.00 52 1014.3
20260903193007 32 110 1.6 8.0 0.00 0.00 0.00 50 1014.3
20260903192905 32 113 4.8 8.0 0.00 0.00 0.00 53 1014.3
20260903192742 32 110 4.8 8.0 0.00 0.00 0.00 51 1014.6
20260903192640 32 116 4.8 8.0 0.00 0.00 0.00 52 1014.6
20260903192538 32 113 6.4 8.0 0.00 0.00 0.00 53 1014.6
20260903192436 32 136 3.2 9.7 0.00 0.00 0.00 51 1014.6
20260903192339 32 110 3.2 9.7 0.00 0.00 0.00 50 1014.6
20260903192238 32 109 1.6 9.7 0.00 0.00 0.00 50 1014.6
20260903192136 32 106 0.0 9.7 0.00 0.00 0.00 54 1014.6
20260903192057 32 103 1.6 9.7 0.00 0.00 0.00 51 1014.6
20260903191934 32 109 3.2 9.7 0.00 0.00 0.00 52 1014.6
20260903191853 32 110 1.6 9.7 0.00 0.00 0.00 50 1014.6
20260903191731 32 109 0.0 9.7 0.00 0.00 0.00 50 1014.6
20260903191700 32 109 3.2 9.7 0.00 0.00 0.00 50 1014.6
20260903191603 32 107 3.2 9.7 0.00 0.00 0.00 50 1014.6
20260903191439 32 34 1.6 4.8 0.00 0.00 0.00 49 1014.6
20260903191339 32 35 1.6 4.8 0.00 0.00 0.00 48 1014.6
20260903191258 32 35 1.6 4.8 0.00 0.00 0.00 48 1014.7
20260903191136 32 35 1.6 4.8 0.00 0.00 0.00 47 1014.7
20260903191035 32 35 1.6 4.8 0.00 0.00 0.00 47 1014.7
20260903190932 32 32 3.2 4.8 0.00 0.00 0.00 48 1014.7
20260903190835 32 35 1.6 4.8 0.00 0.00 0.00 48 1014.7
20260903190733 32 34 0.0 4.8 0.00 0.00 0.00 48 1014.7
20260903190632 32 35 0.0 4.8 0.00 0.00 0.00 48 1014.7
20260903190530 32 35 0.0 6.4 0.00 0.00 0.00 49 1014.7
20260903190448 32 35 1.6 6.4 0.00 0.00 0.00 51 1014.7
20260903190326 32 35 1.6 8.0 0.00 0.00 0.00 50 1014.7
20260903190224 32 37 3.2 11.3 0.00 0.00 0.00 50 1014.7
20260903190155 32 35 3.2 11.3 0.00 0.00 0.00 50 1014.7
20260903190035 32 37 3.2 11.3 0.00 0.00 0.00 50 1014.7
20260903185933 32 34 3.2 11.3 0.00 0.00 0.00 50 1014.7
20260903185834 32 37 3.2 11.3 0.00 0.00 0.00 50 1014.7
20260903185733 32 37 4.8 11.3 0.00 0.00 0.00 50 1014.8
20260903185632 32 40 1.6 11.3 0.00 0.00 0.00 50 1014.8
20260903185531 32 40 4.8 11.3 0.00 0.00 0.00 49 1014.8
20260903185435 32 41 8.0 11.3 0.00 0.00 0.00 49 1014.8
20260903185355 32 44 9.7 11.3 0.00 0.00 0.00 50 1014.8
20260903185232 32 25 9.7 11.3 0.00 0.00 0.00 50 1014.8
20260903185131 32 47 4.8 11.3 0.00 0.00 0.00 52 1014.8
20260903185030 32 49 6.4 11.3 0.00 0.00 0.00 51 1014.8
20260903184929 32 49 8.0 11.3 0.00 0.00 0.00 50 1014.8
20260903184826 32 48 4.8 11.3 0.00 0.00 0.00 50 1014.8
20260903184724 32 48 4.8 11.3 0.00 0.00 0.00 51 1014.8
20260903184655 32 205 0.0 4.8 0.00 0.00 0.00 51 1014.8
20260903184532 32 199 0.0 4.8 0.00 0.00 0.00 50 1014.8
20260903184451 32 198 1.6 9.7 0.00 0.00 0.00 49 1014.8
20260903184327 32 192 1.6 9.7 0.00 0.00 0.00 51 1014.8
20260903184227 32 195 0.0 9.7 0.00 0.00 0.00 49 1014.8
20260903184126 32 196 0.0 9.7 0.00 0.00 0.00 49 1014.8
20260903184025 32 196 1.6 9.7 0.00 0.00 0.00 50 1014.8
20260903183924 32 192 0.0 9.7 0.00 0.00 0.00 50 1014.8
20260903183827 32 192 1.6 9.7 0.00 0.00 0.00 50 1014.8
20260903183725 32 192 1.6 9.7 0.00 0.00 0.00 52 1014.8
20260903183642 32 192 4.8 9.7 0.00 0.00 0.00 51 1014.8
20260903183540 32 191 6.4 9.7 0.00 0.00 0.00 51 1014.8
20260903183439 32 138 3.2 6.4 0.00 0.00 0.00 51 1014.8
20260903183336 32 1 3.2 4.8 0.00 0.00 0.00 50 1014.8
20260903183253 32 344 1.6 4.8 0.00 0.00 0.00 49 1014.8
20260903183203 31 346 0.0 4.8 0.00 0.00 0.00 49 1014.8
20260903183024 31 346 1.6 4.8 0.00 0.00 0.00 50 1014.8
20260903182942 31 344 1.6 4.8 0.00 0.00 0.00 50 1014.8
20260903182900 31 344 1.6 4.8 0.00 0.00 0.00 51 1014.8
20260903182757 31 346 1.6 4.8 0.00 0.00 0.00 51 1015.2
20260903182634 31 344 0.0 4.8 0.00 0.00 0.00 51 1015.2
20260903182533 31 344 0.0 4.8 0.00 0.00 0.00 50 1015.2
20260903182431 31 344 3.2 8.0 0.00 0.00 0.00 51 1015.2
20260903182329 31 360 0.0 8.0 0.00 0.00 0.00 51 1015.2
20260903182231 31 360 0.0 8.0 0.00 0.00 0.00 51 1015.2
20260903182130 31 360 0.0 8.0 0.00 0.00 0.00 52 1015.2
20260903182031 31 360 0.0 8.0 0.00 0.00 0.00 52 1015.2
20260903181930 31 360 1.6 8.0 0.00 0.00 0.00 52 1015.2
20260903181828 31 1 3.2 8.0 0.00 0.00 0.00 51 1015.2
20260903181758 31 1 3.2 8.0 0.00 0.00 0.00 51 1015.2
20260903181645 31 1 4.8 8.0 0.00 0.00 0.00 51 1015.2
20260903181543 31 326 3.2 4.8 0.00 0.00 0.00 52 1015.2
20260903181446 31 326 0.0 3.2 0.00 0.00 0.00 53 1015.2
20260903181342 31 326 0.0 3.2 0.00 0.00 0.00 53 1015.2
20260903181240 31 323 0.0 3.2 0.00 0.00 0.00 51 1015.4
20260903181139 31 326 0.0 3.2 0.00 0.00 0.00 52 1015.4
20260903181036 31 323 0.0 3.2 0.00 0.00 0.00 50 1015.4
20260903180934 31 325 0.0 4.8 0.00 0.00 0.00 53 1015.4
20260903180833 31 323 0.0 4.8 0.00 0.00 0.00 54 1015.4
20260903180736 31 325 0.0 4.8 0.00 0.00 0.00 55 1015.4
20260903180635 31 325 1.6 6.4 0.00 0.00 0.00 53 1015.4
20260903180532 31 326 3.2 8.0 0.00 0.00 0.00 53 1015.4
20260903180431 31 328 3.2 9.7 0.00 0.00 0.00 50 1015.4
20260903180331 31 326 1.6 9.7 0.00 0.00 0.00 50 1015.4
20260903180231 31 326 3.2 9.7 0.00 0.00 0.00 52 1015.4
20260903180202 31 326 3.2 9.7 0.00 0.00 0.00 53 1015.4
20260903180042 31 326 1.6 9.7 0.00 0.00 0.00 53 1015.4
20260903175940 31 325 1.6 9.7 0.00 0.00 0.00 54 1015.4
20260903175838 31 326 3.2 9.7 0.00 0.00 0.00 55 1015.4
20260903175736 31 326 4.8 9.7 0.00 0.00 0.00 56 1015.5
20260903175635 31 325 6.4 9.7 0.00 0.00 0.00 55 1015.5
20260903175533 31 360 0.0 9.7 0.00 0.00 0.00 53 1015.5
20260903175431 31 25 0.0 4.8 0.00 0.00 0.00 54 1015.5
20260903175334 31 27 1.6 6.4 0.00 0.00 0.00 53 1015.5
20260903175233 31 24 3.2 6.4 0.00 0.00 0.00 51 1015.5
20260903175132 31 27 3.2 8.0 0.00 0.00 0.00 51 1015.5
20260903175032 31 21 1.6 8.0 0.00 0.00 0.00 53 1015.5
20260903174934 31 24 0.0 9.7 0.00 0.00 0.00 51 1015.5
20260903174832 31 24 0.0 9.7 0.00 0.00 0.00 50 1015.5
20260903174731 31 27 1.6 9.7 0.00 0.00 0.00 51 1015.5
20260903174703 31 25 3.2 9.7 0.00 0.00 0.00 51 1015.5
20260903174541 31 25 4.8 9.7 0.00 0.00 0.00 50 1015.5
20260903174438 31 25 3.2 9.7 0.00 0.00 0.00 50 1015.5
20260903174337 31 25 4.8 9.7 0.00 0.00 0.00 51 1015.5
20260903174235 31 25 4.8 9.7 0.00 0.00 0.00 52 1015.6
20260903174133 31 25 3.2 9.7 0.00 0.00 0.00 54 1015.6
20260903174032 31 23 1.6 4.8 0.00 0.00 0.00 53 1015.6
20260903173933 31 23 1.6 4.8 0.00 0.00 0.00 53 1015.6
20260903173833 31 23 0.0 4.8 0.00 0.00 0.00 54 1015.6
20260903173732 31 23 0.0 6.4 0.00 0.00 0.00 54 1015.6
20260903173631 31 24 0.0 6.4 0.00 0.00 0.00 54 1015.6
20260903173530 31 23 1.6 6.4 0.00 0.00 0.00 55 1015.6
20260903173430 31 23 1.6 6.4 0.00 0.00 0.00 53 1015.6
20260903173332 31 21 1.6 6.4 0.00 0.00 0.00 54 1015.6
20260903173302 31 23 3.2 6.4 0.00 0.00 0.00 56 1015.6
20260903173152 31 23 1.6 6.4 0.00 0.00 0.00 56 1015.6
20260903173028 31 24 3.2 9.7 0.00 0.00 0.00 55 1015.6
20260903172946 31 23 4.8 9.7 0.00 0.00 0.00 55 1015.6
20260903172905 31 24 3.2 9.7 0.00 0.00 0.00 55 1015.6
20260903172803 31 27 1.6 9.7 0.00 0.00 0.00 55 1015.9
20260903172702 31 28 1.6 9.7 0.00 0.00 0.00 54 1015.9
20260903172540 31 24 0.0 9.7 0.00 0.00 0.00 53 1015.9
20260903172438 31 28 3.2 9.7 0.00 0.00 0.00 54 1015.9
20260903172340 31 28 3.2 9.7 0.00 0.00 0.00 52 1015.9
20260903172238 31 27 4.8 9.7 0.00 0.00 0.00 53 1015.9
20260903172158 31 25 3.2 9.7 0.00 0.00 0.00 52 1015.9
20260903172034 31 21 1.6 8.0 0.00 0.00 0.00 51 1015.9
20260903171933 31 21 3.2 8.0 0.00 0.00 0.00 53 1015.9
20260903171831 31 20 4.8 8.0 0.00 0.00 0.00 52 1015.9
20260903171741 31 20 4.8 8.0 0.00 0.00 0.00 53 1015.9
20260903171655 31 20 3.2 8.0 0.00 0.00 0.00 53 1015.9
20260903171553 31 18 4.8 8.0 0.00 0.00 0.00 53 1015.9
20260903171430 31 20 3.2 6.4 0.00 0.00 0.00 54 1015.9
20260903171328 31 17 1.6 6.4 0.00 0.00 0.00 54 1015.9
20260903171227 31 21 3.2 6.4 0.00 0.00 0.00 56 1016.1
20260903171124 31 21 1.6 6.4 0.00 0.00 0.00 56 1016.1
20260903171042 31 21 1.6 8.0 0.00 0.00 0.00 55 1016.1
20260903170939 31 21 1.6 8.0 0.00 0.00 0.00 54 1016.1
20260903170840 31 21 1.6 8.0 0.00 0.00 0.00 53 1016.1
20260903170739 31 21 1.6 8.0 0.00 0.00 0.00 55 1016.1
20260903170637 31 23 3.2 8.0 0.00 0.00 0.00 56 1016.1
20260903170535 31 20 4.8 8.0 0.00 0.00 0.00 56 1016.1
20260903170433 31 20 3.2 8.0 0.00 0.00 0.00 54 1016.1
20260903170332 31 20 3.2 8.0 0.00 0.00 0.00 53 1016.1
20260903170241 31 23 6.4 8.0 0.00 0.00 0.00 53 1016.1
20260903170151 31 21 4.8 8.0 0.00 0.00 0.00 53 1016.1
20260903170032 31 24 3.2 8.0 0.00 0.00 0.00 53 1016.1
20260903165953 31 24 0.0 4.8 0.00 0.00 0.00 55 1016.1
20260903165831 31 23 0.0 4.8 0.00 0.00 0.00 55 1016.1
20260903165729 31 23 3.2 4.8 0.00 0.00 0.00 54 1016.2
20260903165630 31 24 3.2 4.8 0.00 0.00 0.00 54 1016.2
20260903165548 31 24 1.6 4.8 0.00 0.00 0.00 54 1016.2
20260903165427 31 23 0.0 4.8 0.00 0.00 0.00 53 1016.2
20260903165333 31 24 1.6 4.8 0.00 0.00 0.00 53 1016.2
20260903165231 31 25 3.2 4.8 0.00 0.00 0.00 54 1016.2
20260903165130 31 23 0.0 8.0 0.00 0.00 0.00 53 1016.2
20260903165028 31 18 3.2 8.0 0.00 0.00 0.00 53 1016.2
20260903164947 31 25 3.2 8.0 0.00 0.00 0.00 53 1016.2
20260903164905 31 21 3.2 8.0 0.00 0.00 0.00 54 1016.2
20260903164801 31 24 3.2 8.0 0.00 0.00 0.00 54 1016.2
20260903164711 31 25 3.2 8.0 0.00 0.00 0.00 54 1016.2
20260903164549 31 25 3.2 8.0 0.00 0.00 0.00 55 1016.2
20260903164446 31 24 3.2 11.3 0.00 0.00 0.00 55 1016.2
20260903164348 31 25 4.8 11.3 0.00 0.00 0.00 55 1016.2
20260903164246 31 24 4.8 11.3 0.00 0.00 0.00 55 1016.3
20260903164204 31 24 4.8 11.3 0.00 0.00 0.00 55 1016.3
20260903164041 31 24 4.8 11.3 0.00 0.00 0.00 54 1016.3
20260903163939 31 20 1.6 11.3 0.00 0.00 0.00 52 1016.3
20260903163837 31 21 1.6 11.3 0.00 0.00 0.00 51 1016.3
20260903163737 31 23 1.6 11.3 0.00 0.00 0.00 52 1016.3
20260903163634 31 23 4.8 11.3 0.00 0.00 0.00 53 1016.3
20260903163536 31 21 4.8 11.3 0.00 0.00 0.00 54 1016.3
20260903163435 31 6 1.6 8.0 0.00 0.00 0.00 54 1016.3
20260903163333 31 7 0.0 8.0 0.00 0.00 0.00 55 1016.3
20260903163243 31 6 1.6 8.0 0.00 0.00 0.00 56 1016.3
20260903163153 31 6 3.2 8.0 0.00 0.00 0.00 54 1016.3
20260903163032 31 6 3.2 8.0 0.00 0.00 0.00 53 1016.3
20260903162930 31 3 4.8 8.0 0.00 0.00 0.00 55 1016.3
20260903162833 31 7 3.2 8.0 0.00 0.00 0.00 55 1016.3
20260903162732 31 7 3.2 8.0 0.00 0.00 0.00 54 1016.5
20260903162650 31 10 4.8 8.0 0.00 0.00 0.00 53 1016.5
20260903162528 31 11 6.4 8.0 0.00 0.00 0.00 53 1016.5
20260903162425 31 10 3.2 8.0 0.00 0.00 0.00 54 1016.5
20260903162343 31 8 1.6 8.0 0.00 0.00 0.00 54 1016.5
20260903162242 30 8 3.2 8.0 0.00 0.00 0.00 54 1016.5
20260903162124 30 7 4.8 8.0 0.00 0.00 0.00 53 1016.5
20260903162043 30 8 1.6 6.4 0.00 0.00 0.00 52 1016.5
20260903161942 30 10 3.2 6.4 0.00 0.00 0.00 53 1016.5
20260903161839 30 10 4.8 6.4 0.00 0.00 0.00 54 1016.5
20260903161757 30 10 4.8 6.4 0.00 0.00 0.00 54 1016.5
20260903161706 30 10 0.0 6.4 0.00 0.00 0.00 53 1016.5
20260903161542 30 10 0.0 4.8 0.00 0.00 0.00 53 1016.5
20260903161440 30 8 1.6 4.8 0.00 0.00 0.00 53 1016.5
20260903161343 30 10 3.2 4.8 0.00 0.00 0.00 54 1016.5
20260903161241 30 10 3.2 4.8 0.00 0.00 0.00 53 1016.6
20260903161159 30 10 3.2 8.0 0.00 0.00 0.00 53 1016.6
20260903161037 30 7 1.6 8.0 0.00 0.00 0.00 54 1016.6
20260903160955 30 8 1.6 8.0 0.00 0.00 0.00 57 1016.6
20260903160832 30 10 0.0 8.0 0.00 0.00 0.00 56 1016.6
20260903160731 30 8 0.0 8.0 0.00 0.00 0.00 56 1016.6
20260903160627 30 8 3.2 8.0 0.00 0.00 0.00 56 1016.6
20260903160528 30 7 3.2 8.0 0.00 0.00 0.00 58 1016.6
20260903160427 30 8 3.2 8.0 0.00 0.00 0.00 58 1016.6
20260903160326 30 10 6.4 8.0 0.00 0.00 0.00 57 1016.6
20260903160235 30 10 0.0 4.8 0.00 0.00 0.00 56 1016.6
20260903160147 30 8 1.6 4.8 0.00 0.00 0.00 56 1016.6
20260903160043 30 8 1.6 4.8 0.00 0.00 0.00 55 1016.6
20260903155940 30 8 1.6 4.8 0.00 0.00 0.00 56 1016.6
20260903155839 30 7 1.6 4.8 0.00 0.00 0.00 55 1016.6
20260903155742 30 7 0.0 4.8 0.00 0.00 0.00 55 1016.6
20260903155640 30 8 0.0 4.8 0.00 0.00 0.00 56 1016.6
20260903155558 30 8 1.6 4.8 0.00 0.00 0.00 56 1016.6
20260903155436 30 8 3.2 4.8 0.00 0.00 0.00 59 1016.6
20260903155334 30 8 3.2 4.8 0.00 0.00 0.00 58 1016.6
20260903155232 30 8 1.6 4.8 0.00 0.00 0.00 59 1016.6
20260903155130 30 8 3.2 4.8 0.00 0.00 0.00 61 1016.6
20260903155032 30 10 1.6 4.8 0.00 0.00 0.00 62 1016.6
20260903154949 30 8 3.2 4.8 0.00 0.00 0.00 62 1016.6
20260903154828 30 8 0.0 4.8 0.00 0.00 0.00 61 1016.6
20260903154727 30 8 3.2 4.8 0.00 0.00 0.00 61 1016.6
20260903154658 30 23 3.2 4.8 0.00 0.00 0.00 61 1016.6
20260903154535 30 24 3.2 4.8 0.00 0.00 0.00 62 1016.6
20260903154433 29 30 0.0 6.4 0.00 0.00 0.00 64 1016.6
20260903154336 29 27 0.0 8.0 0.00 0.00 0.00 64 1016.6
20260903154235 29 28 0.0 8.0 0.00 0.00 0.00 64 1015.7
20260903154133 29 28 0.0 8.0 0.00 0.00 0.00 64 1015.7
20260903154032 29 28 1.6 8.0 0.00 0.00 0.00 63 1015.7
20260903153953 29 30 3.2 8.0 0.00 0.00 0.00 63 1015.7
20260903153830 29 30 1.6 8.0 0.00 0.00 0.00 63 1015.7
20260903153730 29 30 3.2 8.0 0.00 0.00 0.00 64 1015.7
20260903153634 29 28 3.2 8.0 0.00 0.00 0.00 65 1015.7
20260903153530 29 30 4.8 8.0 0.00 0.00 0.00 65 1015.7
20260903153427 29 45 0.0 3.2 0.00 0.00 0.00 65 1015.7
20260903153325 29 47 0.0 3.2 0.00 0.00 0.00 63 1015.7
20260903153244 29 47 1.6 4.8 0.00 0.00 0.00 63 1015.7
20260903153216 29 47 1.6 4.8 0.00 0.00 0.00 62 1015.7
20260903153031 29 45 3.2 4.8 0.00 0.00 0.00 62 1015.7
20260903152948 29 47 3.2 4.8 0.00 0.00 0.00 66 1015.7
20260903152826 28 47 1.6 4.8 0.00 0.00 0.00 65 1015.7
20260903152727 28 47 0.0 4.8 0.00 0.00 0.00 64 1016.5
20260903152626 28 47 1.6 4.8 0.00 0.00 0.00 64 1016.5
20260903152526 28 45 0.0 4.8 0.00 0.00 0.00 65 1016.5
20260903152424 28 40 3.2 4.8 0.00 0.00 0.00 64 1016.5
20260903152343 28 47 1.6 4.8 0.00 0.00 0.00 64 1016.5
20260903152222 28 47 3.2 4.8 0.00 0.00 0.00 65 1016.5
20260903152126 28 47 3.2 4.8 0.00 0.00 0.00 66 1016.5
20260903152027 28 47 3.2 4.8 0.00 0.00 0.00 68 1016.5
20260903151926 28 47 0.0 4.8 0.00 0.00 0.00 69 1016.5
20260903151826 28 48 0.0 4.8 0.00 0.00 0.00 68 1016.5
20260903151735 28 47 1.6 4.8 0.00 0.00 0.00 68 1016.5
20260903151645 28 47 1.6 4.8 0.00 0.00 0.00 68 1016.5
20260903151542 28 47 1.6 4.8 0.00 0.00 0.00 68 1016.5
20260903151441 28 48 3.2 6.4 0.00 0.00 0.00 70 1016.5
20260903151343 28 48 3.2 6.4 0.00 0.00 0.00 71 1016.5
20260903151243 28 48 3.2 8.0 0.00 0.00 0.00 71 1016.4
20260903151201 28 49 1.6 8.0 0.00 0.00 0.00 71 1016.4
20260903151041 28 49 0.0 8.0 0.00 0.00 0.00 71 1016.4
20260903150940 28 52 1.6 8.0 0.00 0.00 0.00 70 1016.4
20260903150838 28 51 3.2 8.0 0.00 0.00 0.00 70 1016.4
20260903150739 28 52 3.2 8.0 0.00 0.00 0.00 70 1016.4
20260903150642 28 54 4.8 8.0 0.00 0.00 0.00 70 1016.4
20260903150540 28 52 4.8 8.0 0.00 0.00 0.00 71 1016.4
20260903150459 28 56 4.8 8.0 0.00 0.00 0.00 71 1016.4
20260903150337 28 56 3.2 8.0 0.00 0.00 0.00 71 1016.4
20260903150235 28 56 1.6 3.2 0.00 0.00 0.00 71 1016.4
20260903150204 28 49 0.0 3.2 0.00 0.00 0.00 71 1016.4
20260903150041 28 56 0.0 1.6 0.00 0.00 0.00 72 1016.4
20260903145939 28 54 0.0 1.6 0.00 0.00 0.00 72 1016.4
20260903145841 28 54 1.6 1.6 0.00 0.00 0.00 71 1016.4
20260903145759 28 56 0.0 0.0 0.00 0.00 0.00 71 1015.6
20260903145656 28 58 0.0 0.0 0.00 0.00 0.00 71 1015.6
20260903145534 28 56 0.0 0.0 0.00 0.00 0.00 71 1015.6
20260903145432 28 56 0.0 0.0 0.00 0.00 0.00 71 1015.6
20260903145330 28 56 0.0 0.0 0.00 0.00 0.00 71 1015.6
20260903145232 28 56 0.0 0.0 0.00 0.00 0.00 71 1015.6
20260903145136 28 55 0.0 0.0 0.00 0.00 0.00 71 1015.6
20260903145035 28 56 0.0 1.6 0.00 0.00 0.00 71 1015.6
20260903144933 28 52 0.0 1.6 0.00 0.00 0.00 71 1015.6
20260903144830 28 56 0.0 1.6 0.00 0.00 0.00 71 1015.6
20260903144728 28 56 0.0 1.6 0.00 0.00 0.00 71 1015.6
20260903144658 28 55 0.0 1.6 0.00 0.00 0.00 70 1015.6
20260903144536 27 56 0.0 1.6 0.00 0.00 0.00 70 1015.6
20260903144439 27 56 0.0 1.6 0.00 0.00 0.00 70 1015.6
20260903144357 27 54 0.0 1.6 0.00 0.00 0.00 69 1015.6
20260903144255 27 56 0.0 1.6 0.00 0.00 0.00 70 1015.6
20260903144133 27 56 0.0 1.6 0.00 0.00 0.00 69 1015.6
20260903144030 27 56 0.0 1.6 0.00 0.00 0.00 68 1015.6
20260903143930 27 54 1.6 1.6 0.00 0.00 0.00 69 1015.6
20260903143851 27 56 0.0 1.6 0.00 0.00 0.00 70 1015.6
20260903143729 27 56 0.0 1.6 0.00 0.00 0.00 69 1015.6
20260903143630 27 56 0.0 1.6 0.00 0.00 0.00 70 1015.6
20260903143529 27 56 0.0 1.6 0.00 0.00 0.00 71 1015.6
20260903143427 27 55 0.0 1.6 0.00 0.00 0.00 71 1015.6
20260903143327 27 56 0.0 1.6 0.00 0.00 0.00 71 1015.6
20260903143225 27 56 0.0 1.6 0.00 0.00 0.00 71 1015.6